Observation data for Palo Duro Canyon State Park Rim on 02/14/2020      Previous  Date  Next       Current Mesonet Observations  Soil Data  Daily Summary Page  Observations in Plain Language
KPD1 140600Z 14008KT M06/M12 A3028 RMK A01 T10601115  RH  065%=      5-min Rain = 0
KPD1 140601Z 14007KT M06/M12 A3028 RMK A01 T10601115  RH  065%=      5-min Rain = 0
KPD1 140602Z 13006KT M06/M12 A3029 RMK A01 T10601116  RH  065%=      5-min Rain = 0
KPD1 140603Z 14008KT M06/M12 A3028 RMK A01 T10601116  RH  065%=      5-min Rain = 0
KPD1 140604Z 15008KT M06/M12 A3028 RMK A01 T10601116  RH  065%=      5-min Rain = 0
KPD1 140605Z 15009KT M06/M12 A3029 RMK A01 T10611117  RH  065%=      5-min Rain = 0
KPD1 140606Z 14009KT M06/M12 A3029 RMK A01 T10611117  RH  065%=      5-min Rain = 0
KPD1 140607Z 14008KT M06/M12 A3029 RMK A01 T10611117  RH  065%=      5-min Rain = 0
KPD1 140608Z 14008KT M06/M12 A3029 RMK A01 T10611117  RH  065%=      5-min Rain = 0
KPD1 140609Z 14008KT M06/M12 A3029 RMK A01 T10611117  RH  065%=      5-min Rain = 0
KPD1 140610Z 15007KT M06/M12 A3029 RMK A01 T10621118  RH  065%=      5-min Rain = 0
KPD1 140611Z 15007KT M06/M12 A3029 RMK A01 T10621118  RH  065%=      5-min Rain = 0
KPD1 140612Z 14008KT M06/M12 A3029 RMK A01 T10621117  RH  065%=      5-min Rain = 0
KPD1 140613Z 14006KT M06/M12 A3029 RMK A01 T10621118  RH  065%=      5-min Rain = 0
KPD1 140614Z 14007KT M06/M12 A3029 RMK A01 T10621118  RH  065%=      5-min Rain = 0
KPD1 140615Z 15008KT M06/M12 A3029 RMK A01 T10621118  RH  065%=      5-min Rain = 0
KPD1 140616Z 14007KT M06/M12 A3029 RMK A01 T10621118  RH  064%=      5-min Rain = 0
KPD1 140617Z 13008KT M06/M12 A3029 RMK A01 T10621118  RH  064%=      5-min Rain = 0
KPD1 140618Z 13008KT M06/M12 A3029 RMK A01 T10621119  RH  064%=      5-min Rain = 0
KPD1 140619Z 13005KT M06/M12 A3029 RMK A01 T10631119  RH  064%=      5-min Rain = 0
KPD1 140620Z 14008KT M06/M12 A3029 RMK A01 T10631119  RH  064%=      5-min Rain = 0
KPD1 140621Z 14008KT M06/M12 A3029 RMK A01 T10621119  RH  064%=      5-min Rain = 0
KPD1 140622Z 14006KT M06/M12 A3029 RMK A01 T10621119  RH  064%=      5-min Rain = 0
KPD1 140623Z 14008KT M06/M12 A3029 RMK A01 T10631119  RH  064%=      5-min Rain = 0
KPD1 140624Z 15007KT M06/M12 A3029 RMK A01 T10631119  RH  064%=      5-min Rain = 0
KPD1 140625Z 15006KT M06/M12 A3029 RMK A01 T10631120  RH  064%=      5-min Rain = 0
KPD1 140626Z 14006KT M06/M12 A3029 RMK A01 T10631119  RH  064%=      5-min Rain = 0
KPD1 140627Z 14006KT M06/M12 A3029 RMK A01 T10631119  RH  064%=      5-min Rain = 0
KPD1 140628Z 13006KT M06/M12 A3029 RMK A01 T10631120  RH  064%=      5-min Rain = 0
KPD1 140629Z 14005KT M06/M12 A3029 RMK A01 T10641120  RH  064%=      5-min Rain = 0
KPD1 140630Z 14006KT M06/M12 A3029 RMK A01 T10631119  RH  064%=      5-min Rain = 0
KPD1 140631Z 14007KT M06/M12 A3029 RMK A01 T10641119  RH  065%=      5-min Rain = 0
KPD1 140632Z 14008KT M06/M12 A3029 RMK A01 T10641119  RH  065%=      5-min Rain = 0
KPD1 140633Z 13007KT M06/M12 A3029 RMK A01 T10641120  RH  065%=      5-min Rain = 0
KPD1 140634Z 14005KT M06/M12 A3029 RMK A01 T10641119  RH  065%=      5-min Rain = 0
KPD1 140635Z 14006KT M06/M12 A3029 RMK A01 T10641119  RH  065%=      5-min Rain = 0
KPD1 140636Z 14006KT M06/M12 A3029 RMK A01 T10641120  RH  065%=      5-min Rain = 0
KPD1 140637Z 15007KT M06/M12 A3029 RMK A01 T10641120  RH  065%=      5-min Rain = 0
KPD1 140638Z 14008KT M06/M12 A3029 RMK A01 T10641119  RH  065%=      5-min Rain = 0
KPD1 140639Z 14007KT M06/M12 A303 RMK A01 T10641120  RH  065%=      5-min Rain = 0
KPD1 140640Z 14007KT M06/M12 A303 RMK A01 T10641120  RH  065%=      5-min Rain = 0
KPD1 140641Z 14006KT M06/M12 A303 RMK A01 T10641120  RH  065%=      5-min Rain = 0
KPD1 140642Z 14007KT M06/M12 A303 RMK A01 T10641120  RH  065%=      5-min Rain = 0
KPD1 140643Z 14007KT M06/M12 A303 RMK A01 T10641120  RH  065%=      5-min Rain = 0
KPD1 140644Z 14006KT M06/M12 A303 RMK A01 T10641119  RH  065%=      5-min Rain = 0
KPD1 140645Z 14006KT M06/M12 A303 RMK A01 T10641120  RH  065%=      5-min Rain = 0
KPD1 140646Z 15007KT M07/M12 A303 RMK A01 T10651120  RH  065%=      5-min Rain = 0
KPD1 140647Z 13008KT M07/M12 A303 RMK A01 T10651121  RH  065%=      5-min Rain = 0
KPD1 140648Z 14006KT M07/M12 A303 RMK A01 T10651121  RH  064%=      5-min Rain = 0
KPD1 140649Z 14007KT M07/M12 A303 RMK A01 T10651121  RH  064%=      5-min Rain = 0
KPD1 140650Z 14006KT M07/M12 A303 RMK A01 T10651121  RH  064%=      5-min Rain = 0
KPD1 140651Z 14007KT M07/M12 A303 RMK A01 T10651122  RH  064%=      5-min Rain = 0
KPD1 140652Z 13005KT M07/M12 A303 RMK A01 T10651122  RH  064%=      5-min Rain = 0
KPD1 140653Z 13004KT M07/M12 A303 RMK A01 T10661122  RH  064%=      5-min Rain = 0
KPD1 140654Z 14004KT M07/M12 A303 RMK A01 T10661122  RH  065%=      5-min Rain = 0
KPD1 140655Z 12006KT M07/M12 A303 RMK A01 T10661122  RH  065%=      5-min Rain = 0
KPD1 140656Z 11005KT M07/M12 A303 RMK A01 T10671123  RH  064%=      5-min Rain = 0
KPD1 140657Z 13005KT M07/M12 A303 RMK A01 T10671123  RH  064%=      5-min Rain = 0
KPD1 140658Z 15006KT M07/M12 A303 RMK A01 T10661123  RH  064%=      5-min Rain = 0
KPD1 140659Z 15007KT M07/M12 A303 RMK A01 T10671123  RH  065%=      5-min Rain = 0
KPD1 140700Z 13005KT M07/M12 A303 RMK A01 T10671123  RH  064%=      5-min Rain = 0
KPD1 140701Z 12003KT M07/M12 A3031 RMK A01 T10671123  RH  065%=      5-min Rain = 0
KPD1 140702Z 14005KT M07/M12 A3031 RMK A01 T10671123  RH  065%=      5-min Rain = 0
KPD1 140703Z 15006KT M07/M12 A3031 RMK A01 T10681123  RH  065%=      5-min Rain = 0
KPD1 140704Z 14006KT M07/M12 A3031 RMK A01 T10681123  RH  065%=      5-min Rain = 0
KPD1 140705Z 13005KT M07/M12 A3031 RMK A01 T10671123  RH  065%=      5-min Rain = 0
KPD1 140706Z 13005KT M07/M12 A3031 RMK A01 T10671123  RH  065%=      5-min Rain = 0
KPD1 140707Z 14007KT M07/M12 A3031 RMK A01 T10681122  RH  065%=      5-min Rain = 0
KPD1 140708Z 14007KT M07/M12 A3031 RMK A01 T10681122  RH  065%=      5-min Rain = 0
KPD1 140709Z 14005KT M07/M12 A3031 RMK A01 T10681123  RH  065%=      5-min Rain = 0
KPD1 140710Z 13006KT M07/M12 A3031 RMK A01 T10671122  RH  065%=      5-min Rain = 0
KPD1 140711Z 14006KT M07/M12 A3031 RMK A01 T10671123  RH  065%=      5-min Rain = 0
KPD1 140712Z 13005KT M07/M12 A3031 RMK A01 T10671122  RH  065%=      5-min Rain = 0
KPD1 140713Z 14006KT M07/M12 A3031 RMK A01 T10661122  RH  065%=      5-min Rain = 0
KPD1 140714Z 15006KT M07/M12 A3031 RMK A01 T10661122  RH  064%=      5-min Rain = 0
KPD1 140715Z 14004KT M07/M12 A3031 RMK A01 T10661122  RH  064%=      5-min Rain = 0
KPD1 140716Z 13006KT M07/M12 A3031 RMK A01 T10661122  RH  064%=      5-min Rain = 0
KPD1 140717Z 14006KT M07/M12 A3031 RMK A01 T10651121  RH  064%=      5-min Rain = 0
KPD1 140718Z 14006KT M07/M12 A3031 RMK A01 T10651121  RH  065%=      5-min Rain = 0
KPD1 140719Z 14006KT M07/M12 A3031 RMK A01 T10651121  RH  064%=      5-min Rain = 0
KPD1 140720Z 14006KT M07/M12 A3031 RMK A01 T10651121  RH  064%=      5-min Rain = 0
KPD1 140721Z 14005KT M07/M12 A3031 RMK A01 T10651121  RH  064%=      5-min Rain = 0
KPD1 140722Z 16005KT M07/M12 A3031 RMK A01 T10651121  RH  064%=      5-min Rain = 0
KPD1 140723Z 14007KT M07/M12 A3031 RMK A01 T10651121  RH  064%=      5-min Rain = 0
KPD1 140724Z 14007KT M07/M12 A3031 RMK A01 T10651121  RH  064%=      5-min Rain = 0
KPD1 140725Z 13006KT M07/M12 A3031 RMK A01 T10651121  RH  064%=      5-min Rain = 0
KPD1 140726Z 14006KT M07/M12 A3031 RMK A01 T10651122  RH  064%=      5-min Rain = 0
KPD1 140727Z 15007KT M07/M12 A3031 RMK A01 T10651121  RH  064%=      5-min Rain = 0
KPD1 140728Z 14007KT M07/M12 A3031 RMK A01 T10651121  RH  064%=      5-min Rain = 0
KPD1 140729Z 13006KT M07/M12 A3031 RMK A01 T10651121  RH  064%=      5-min Rain = 0
KPD1 140730Z 13006KT M07/M12 A3031 RMK A01 T10651122  RH  064%=      5-min Rain = 0
KPD1 140731Z 14006KT M07/M12 A303 RMK A01 T10651121  RH  064%=      5-min Rain = 0
KPD1 140732Z 15007KT M07/M12 A3031 RMK A01 T10651121  RH  064%=      5-min Rain = 0
KPD1 140733Z 14006KT M07/M12 A3031 RMK A01 T10651121  RH  064%=      5-min Rain = 0
KPD1 140734Z 14006KT M07/M12 A3031 RMK A01 T10651121  RH  064%=      5-min Rain = 0
KPD1 140735Z 14007KT M06/M12 A3031 RMK A01 T10641120  RH  064%=      5-min Rain = 0
KPD1 140736Z 14006KT M06/M12 A3031 RMK A01 T10641120  RH  064%=      5-min Rain = 0
KPD1 140737Z 14005KT M06/M12 A3031 RMK A01 T10641121  RH  064%=      5-min Rain = 0
KPD1 140738Z 14007KT M06/M12 A3031 RMK A01 T10641121  RH  064%=      5-min Rain = 0
KPD1 140739Z 15007KT M06/M12 A3031 RMK A01 T10641121  RH  064%=      5-min Rain = 0
KPD1 140740Z 13006KT M06/M12 A3031 RMK A01 T10641120  RH  064%=      5-min Rain = 0
KPD1 140741Z 15008KT M06/M12 A3031 RMK A01 T10641121  RH  064%=      5-min Rain = 0
KPD1 140742Z 14008KT M07/M12 A3031 RMK A01 T10651121  RH  064%=      5-min Rain = 0
KPD1 140743Z 14007KT M07/M12 A3031 RMK A01 T10651121  RH  064%=      5-min Rain = 0
KPD1 140744Z 13008KT M07/M12 A3031 RMK A01 T10651121  RH  064%=      5-min Rain = 0
KPD1 140745Z 14008KT M07/M12 A3031 RMK A01 T10651121  RH  064%=      5-min Rain = 0
KPD1 140746Z 14009KT M07/M12 A3031 RMK A01 T10651122  RH  064%=      5-min Rain = 0
KPD1 140747Z 14009KT M07/M12 A3031 RMK A01 T10651122  RH  064%=      5-min Rain = 0
KPD1 140748Z 14006KT M07/M12 A3031 RMK A01 T10651121  RH  064%=      5-min Rain = 0
KPD1 140749Z 13008KT M07/M12 A3031 RMK A01 T10651121  RH  064%=      5-min Rain = 0
KPD1 140750Z 14010KT M07/M12 A3031 RMK A01 T10661122  RH  064%=      5-min Rain = 0
KPD1 140751Z 13008KT M07/M12 A3031 RMK A01 T10661122  RH  064%=      5-min Rain = 0
KPD1 140752Z 14005KT M07/M12 A3031 RMK A01 T10661122  RH  064%=      5-min Rain = 0
KPD1 140753Z 14008KT M07/M12 A3031 RMK A01 T10661122  RH  064%=      5-min Rain = 0
KPD1 140754Z 15007KT M07/M12 A3031 RMK A01 T10661122  RH  065%=      5-min Rain = 0
KPD1 140755Z 14008KT M07/M12 A3031 RMK A01 T10661122  RH  065%=      5-min Rain = 0
KPD1 140756Z 13008KT M07/M12 A3031 RMK A01 T10671122  RH  065%=      5-min Rain = 0
KPD1 140757Z 14006KT M07/M12 A3031 RMK A01 T10661122  RH  065%=      5-min Rain = 0
KPD1 140758Z 14006KT M07/M12 A3031 RMK A01 T10671122  RH  065%=      5-min Rain = 0
KPD1 140759Z 13004KT M07/M12 A3031 RMK A01 T10671121  RH  065%=      5-min Rain = 0
KPD1 140800Z 14005KT M07/M12 A3031 RMK A01 T10671121  RH  065%=      5-min Rain = 0
KPD1 140801Z 14007KT M07/M12 A3031 RMK A01 T10661120  RH  066%=      5-min Rain = 0
KPD1 140802Z 14007KT M07/M12 A3031 RMK A01 T10671121  RH  065%=      5-min Rain = 0
KPD1 140803Z 13007KT M07/M12 A3031 RMK A01 T10671121  RH  065%=      5-min Rain = 0
KPD1 140804Z 15007KT M07/M12 A3031 RMK A01 T10671121  RH  065%=      5-min Rain = 0
KPD1 140805Z 15007KT M07/M12 A3031 RMK A01 T10661121  RH  065%=      5-min Rain = 0
KPD1 140806Z 14008KT M07/M12 A3031 RMK A01 T10671121  RH  065%=      5-min Rain = 0
KPD1 140807Z 14007KT M07/M12 A3031 RMK A01 T10671122  RH  065%=      5-min Rain = 0
KPD1 140808Z 15007KT M07/M12 A3031 RMK A01 T10671122  RH  065%=      5-min Rain = 0
KPD1 140809Z 15006KT M07/M12 A3031 RMK A01 T10671121  RH  065%=      5-min Rain = 0
KPD1 140810Z 14006KT M07/M12 A3031 RMK A01 T10671121  RH  066%=      5-min Rain = 0
KPD1 140811Z 14007KT M07/M12 A3031 RMK A01 T10671121  RH  066%=      5-min Rain = 0
KPD1 140812Z 13007KT M07/M12 A3031 RMK A01 T10671121  RH  066%=      5-min Rain = 0
KPD1 140813Z 14008KT M07/M12 A3031 RMK A01 T10671121  RH  066%=      5-min Rain = 0
KPD1 140814Z 13007KT M07/M12 A3031 RMK A01 T10671121  RH  066%=      5-min Rain = 0
KPD1 140815Z 14006KT M07/M12 A3031 RMK A01 T10671121  RH  066%=      5-min Rain = 0
KPD1 140816Z 14007KT M07/M12 A3031 RMK A01 T10671121  RH  066%=      5-min Rain = 0
KPD1 140817Z 14006KT M07/M12 A3031 RMK A01 T10671120  RH  066%=      5-min Rain = 0
KPD1 140818Z 14007KT M07/M12 A3031 RMK A01 T10671120  RH  066%=      5-min Rain = 0
KPD1 140819Z 14006KT M07/M12 A3031 RMK A01 T10671120  RH  066%=      5-min Rain = 0
KPD1 140820Z 13008KT M07/M12 A3031 RMK A01 T10671120  RH  066%=      5-min Rain = 0
KPD1 140821Z 13007KT M07/M12 A3031 RMK A01 T10671120  RH  066%=      5-min Rain = 0
KPD1 140822Z 13007KT M07/M12 A3031 RMK A01 T10671121  RH  066%=      5-min Rain = 0
KPD1 140823Z 14006KT M07/M12 A3031 RMK A01 T10681121  RH  066%=      5-min Rain = 0
KPD1 140824Z 14006KT M07/M12 A3031 RMK A01 T10671121  RH  066%=      5-min Rain = 0
KPD1 140825Z 14005KT M07/M12 A3031 RMK A01 T10681121  RH  066%=      5-min Rain = 0
KPD1 140826Z 14007KT M07/M12 A3031 RMK A01 T10671120  RH  066%=      5-min Rain = 0
KPD1 140827Z 14006KT M07/M12 A3031 RMK A01 T10671120  RH  066%=      5-min Rain = 0
KPD1 140828Z 14006KT M07/M12 A3031 RMK A01 T10671121  RH  066%=      5-min Rain = 0
KPD1 140829Z 14005KT M07/M12 A3031 RMK A01 T10681121  RH  066%=      5-min Rain = 0
KPD1 140830Z 14007KT M07/M12 A3031 RMK A01 T10671120  RH  066%=      5-min Rain = 0
KPD1 140831Z 14007KT M07/M12 A3031 RMK A01 T10671120  RH  066%=      5-min Rain = 0
KPD1 140832Z 13008KT M07/M12 A3031 RMK A01 T10681121  RH  066%=      5-min Rain = 0
KPD1 140833Z 14007KT M07/M12 A3031 RMK A01 T10681121  RH  066%=      5-min Rain = 0
KPD1 140834Z 14005KT M07/M12 A3031 RMK A01 T10681121  RH  066%=      5-min Rain = 0
KPD1 140835Z 14005KT M07/M12 A3031 RMK A01 T10681121  RH  066%=      5-min Rain = 0
KPD1 140836Z 14006KT M07/M12 A3031 RMK A01 T10681121  RH  066%=      5-min Rain = 0
KPD1 140837Z 14008KT M07/M12 A3031 RMK A01 T10681121  RH  066%=      5-min Rain = 0
KPD1 140838Z 13007KT M07/M12 A3031 RMK A01 T10681121  RH  066%=      5-min Rain = 0
KPD1 140839Z 14007KT M07/M12 A3031 RMK A01 T10681121  RH  066%=      5-min Rain = 0
KPD1 140840Z 14008KT M07/M12 A3031 RMK A01 T10681121  RH  066%=      5-min Rain = 0
KPD1 140841Z 14008KT M07/M12 A3031 RMK A01 T10681121  RH  066%=      5-min Rain = 0
KPD1 140842Z 14007KT M07/M12 A3031 RMK A01 T10681121  RH  066%=      5-min Rain = 0
KPD1 140843Z 14007KT M07/M12 A3031 RMK A01 T10681120  RH  066%=      5-min Rain = 0
KPD1 140844Z 14006KT M07/M12 A3031 RMK A01 T10681120  RH  066%=      5-min Rain = 0
KPD1 140845Z 14006KT M07/M12 A3031 RMK A01 T10681120  RH  066%=      5-min Rain = 0
KPD1 140846Z 14006KT M07/M12 A3031 RMK A01 T10681121  RH  066%=      5-min Rain = 0
KPD1 140847Z 14006KT M07/M12 A3031 RMK A01 T10681120  RH  066%=      5-min Rain = 0
KPD1 140848Z 14004KT M07/M12 A3031 RMK A01 T10681120  RH  066%=      5-min Rain = 0
KPD1 140849Z 13008KT M07/M12 A3031 RMK A01 T10681120  RH  067%=      5-min Rain = 0
KPD1 140850Z 13008KT M07/M12 A3031 RMK A01 T10681120  RH  066%=      5-min Rain = 0
KPD1 140851Z 14006KT M07/M12 A3031 RMK A01 T10681120  RH  066%=      5-min Rain = 0
KPD1 140852Z 14005KT M07/M12 A3031 RMK A01 T10681120  RH  066%=      5-min Rain = 0
KPD1 140853Z 15005KT M07/M12 A303 RMK A01 T10681120  RH  066%=      5-min Rain = 0
KPD1 140854Z 13006KT M07/M12 A303 RMK A01 T10681120  RH  067%=      5-min Rain = 0
KPD1 140855Z 14004KT M07/M12 A303 RMK A01 T10681119  RH  067%=      5-min Rain = 0
KPD1 140856Z 14007KT M07/M12 A303 RMK A01 T10681119  RH  067%=      5-min Rain = 0
KPD1 140857Z 14006KT M07/M12 A303 RMK A01 T10681119  RH  067%=      5-min Rain = 0
KPD1 140858Z 13006KT M07/M12 A303 RMK A01 T10681119  RH  067%=      5-min Rain = 0
KPD1 140859Z 15005KT M07/M12 A303 RMK A01 T10681120  RH  067%=      5-min Rain = 0
KPD1 140900Z 14006KT M07/M12 A303 RMK A01 T10681119  RH  067%=      5-min Rain = 0
KPD1 140901Z 13005KT M07/M12 A303 RMK A01 T10681119  RH  067%=      5-min Rain = 0
KPD1 140902Z 14005KT M07/M12 A303 RMK A01 T10681119  RH  067%=      5-min Rain = 0
KPD1 140903Z 14007KT M07/M12 A303 RMK A01 T10681119  RH  067%=      5-min Rain = 0
KPD1 140904Z 14007KT M07/M12 A303 RMK A01 T10681119  RH  067%=      5-min Rain = 0
KPD1 140905Z 15006KT M07/M12 A303 RMK A01 T10681119  RH  067%=      5-min Rain = 0
KPD1 140906Z 14004KT M07/M12 A303 RMK A01 T10681119  RH  067%=      5-min Rain = 0
KPD1 140907Z 14005KT M07/M12 A303 RMK A01 T10681118  RH  067%=      5-min Rain = 0
KPD1 140908Z 14005KT M07/M12 A303 RMK A01 T10681118  RH  067%=      5-min Rain = 0
KPD1 140909Z 14006KT M07/M12 A303 RMK A01 T10681118  RH  067%=      5-min Rain = 0
KPD1 140910Z 15005KT M07/M12 A303 RMK A01 T10681118  RH  067%=      5-min Rain = 0
KPD1 140911Z 14004KT M07/M12 A303 RMK A01 T10681118  RH  067%=      5-min Rain = 0
KPD1 140912Z 15006KT M07/M12 A303 RMK A01 T10681118  RH  067%=      5-min Rain = 0
KPD1 140913Z 15006KT M07/M12 A303 RMK A01 T10681118  RH  067%=      5-min Rain = 0
KPD1 140914Z 15005KT M07/M12 A303 RMK A01 T10681118  RH  067%=      5-min Rain = 0
KPD1 140915Z 15005KT M07/M12 A303 RMK A01 T10681118  RH  067%=      5-min Rain = 0
KPD1 140916Z 14005KT M07/M12 A303 RMK A01 T10681119  RH  067%=      5-min Rain = 0
KPD1 140917Z 14004KT M07/M12 A303 RMK A01 T10681118  RH  067%=      5-min Rain = 0
KPD1 140918Z 13003KT M07/M12 A303 RMK A01 T10681118  RH  068%=      5-min Rain = 0
KPD1 140919Z 14005KT M07/M12 A303 RMK A01 T10681118  RH  068%=      5-min Rain = 0
KPD1 140920Z 14006KT M07/M12 A303 RMK A01 T10681118  RH  068%=      5-min Rain = 0
KPD1 140921Z 14005KT M07/M12 A303 RMK A01 T10681118  RH  068%=      5-min Rain = 0
KPD1 140922Z 13005KT M07/M12 A303 RMK A01 T10681119  RH  067%=      5-min Rain = 0
KPD1 140923Z 14004KT M07/M12 A303 RMK A01 T10681119  RH  067%=      5-min Rain = 0
KPD1 140924Z 14004KT M07/M12 A303 RMK A01 T10681118  RH  068%=      5-min Rain = 0
KPD1 140925Z 14005KT M07/M12 A303 RMK A01 T10681118  RH  068%=      5-min Rain = 0
KPD1 140926Z 14004KT M07/M12 A303 RMK A01 T10691118  RH  068%=      5-min Rain = 0
KPD1 140927Z 15005KT M07/M12 A303 RMK A01 T10681118  RH  068%=      5-min Rain = 0
KPD1 140928Z 14004KT M07/M12 A303 RMK A01 T10681118  RH  068%=      5-min Rain = 0
KPD1 140929Z 14002KT M07/M12 A303 RMK A01 T10691118  RH  068%=      5-min Rain = 0
KPD1 140930Z 15003KT M07/M12 A303 RMK A01 T10691117  RH  068%=      5-min Rain = 0
KPD1 140931Z 13005KT M07/M12 A303 RMK A01 T10681117  RH  068%=      5-min Rain = 0
KPD1 140932Z 15004KT M07/M12 A303 RMK A01 T10681117  RH  068%=      5-min Rain = 0
KPD1 140933Z 12004KT M07/M12 A303 RMK A01 T10681117  RH  068%=      5-min Rain = 0
KPD1 140934Z 14004KT M07/M12 A303 RMK A01 T10681117  RH  068%=      5-min Rain = 0
KPD1 140935Z 14004KT M07/M12 A303 RMK A01 T10681117  RH  068%=      5-min Rain = 0
KPD1 140936Z 14005KT M07/M12 A303 RMK A01 T10681117  RH  068%=      5-min Rain = 0
KPD1 140937Z 14005KT M07/M12 A303 RMK A01 T10681117  RH  068%=      5-min Rain = 0
KPD1 140938Z 14006KT M07/M12 A303 RMK A01 T10681117  RH  068%=      5-min Rain = 0
KPD1 140939Z 14004KT M07/M12 A303 RMK A01 T10681117  RH  068%=      5-min Rain = 0
KPD1 140940Z 14005KT M07/M12 A303 RMK A01 T10681117  RH  068%=      5-min Rain = 0
KPD1 140941Z 14005KT M07/M12 A303 RMK A01 T10681117  RH  068%=      5-min Rain = 0
KPD1 140942Z 14004KT M07/M12 A303 RMK A01 T10681117  RH  068%=      5-min Rain = 0
KPD1 140943Z 15005KT M07/M12 A303 RMK A01 T10681117  RH  068%=      5-min Rain = 0
KPD1 140944Z 16006KT M07/M12 A303 RMK A01 T10681116  RH  068%=      5-min Rain = 0
KPD1 140945Z 15005KT M07/M12 A303 RMK A01 T10681117  RH  068%=      5-min Rain = 0
KPD1 140946Z 15004KT M07/M12 A303 RMK A01 T10681117  RH  068%=      5-min Rain = 0
KPD1 140947Z 14005KT M07/M12 A303 RMK A01 T10681116  RH  069%=      5-min Rain = 0
KPD1 140948Z 14005KT M07/M12 A303 RMK A01 T10681117  RH  068%=      5-min Rain = 0
KPD1 140949Z 15005KT M07/M12 A303 RMK A01 T10681117  RH  068%=      5-min Rain = 0
KPD1 140950Z 15005KT M07/M12 A303 RMK A01 T10681117  RH  069%=      5-min Rain = 0
KPD1 140951Z 15004KT M07/M12 A303 RMK A01 T10691117  RH  069%=      5-min Rain = 0
KPD1 140952Z 15006KT M07/M12 A303 RMK A01 T10681116  RH  069%=      5-min Rain = 0
KPD1 140953Z 15005KT M07/M12 A303 RMK A01 T10681116  RH  069%=      5-min Rain = 0
KPD1 140954Z 15004KT M07/M12 A303 RMK A01 T10681116  RH  069%=      5-min Rain = 0
KPD1 140955Z 14004KT M07/M12 A303 RMK A01 T10681116  RH  069%=      5-min Rain = 0
KPD1 140956Z 14004KT M07/M12 A303 RMK A01 T10691116  RH  069%=      5-min Rain = 0
KPD1 140957Z 15006KT M07/M12 A303 RMK A01 T10681116  RH  069%=      5-min Rain = 0
KPD1 140958Z 15005KT M07/M12 A303 RMK A01 T10681116  RH  069%=      5-min Rain = 0
KPD1 140959Z 15005KT M07/M12 A303 RMK A01 T10681116  RH  069%=      5-min Rain = 0
KPD1 141000Z 15007KT M07/M12 A3029 RMK A01 T10691116  RH  069%=      5-min Rain = 0
KPD1 141001Z 15007KT M07/M12 A3029 RMK A01 T10691116  RH  069%=      5-min Rain = 0
KPD1 141002Z 15004KT M07/M12 A3029 RMK A01 T10691116  RH  069%=      5-min Rain = 0
KPD1 141003Z 15006KT M07/M12 A3029 RMK A01 T10691116  RH  069%=      5-min Rain = 0
KPD1 141004Z 15005KT M07/M12 A3029 RMK A01 T10691116  RH  069%=      5-min Rain = 0
KPD1 141005Z 15006KT M07/M12 A3029 RMK A01 T10691116  RH  069%=      5-min Rain = 0
KPD1 141006Z 15005KT M07/M12 A3029 RMK A01 T10691116  RH  069%=      5-min Rain = 0
KPD1 141007Z 16005KT M07/M12 A3029 RMK A01 T10691115  RH  069%=      5-min Rain = 0
KPD1 141008Z 15007KT M07/M12 A3029 RMK A01 T10691115  RH  069%=      5-min Rain = 0
KPD1 141009Z 15006KT M07/M12 A3029 RMK A01 T10691116  RH  069%=      5-min Rain = 0
KPD1 141010Z 15005KT M07/M12 A3029 RMK A01 T10691116  RH  069%=      5-min Rain = 0
KPD1 141011Z 15006KT M07/M12 A3029 RMK A01 T10691116  RH  069%=      5-min Rain = 0
KPD1 141012Z 15006KT M07/M12 A3029 RMK A01 T10691116  RH  069%=      5-min Rain = 0
KPD1 141013Z 15006KT M07/M12 A3029 RMK A01 T10691116  RH  069%=      5-min Rain = 0
KPD1 141014Z 14006KT M07/M12 A3029 RMK A01 T10691116  RH  069%=      5-min Rain = 0
KPD1 141015Z 15005KT M07/M12 A3029 RMK A01 T10691116  RH  069%=      5-min Rain = 0
KPD1 141016Z 15005KT M07/M12 A3029 RMK A01 T10691116  RH  070%=      5-min Rain = 0
KPD1 141017Z 14006KT M07/M12 A3029 RMK A01 T10691115  RH  070%=      5-min Rain = 0
KPD1 141018Z 14005KT M07/M12 A3029 RMK A01 T10691115  RH  070%=      5-min Rain = 0
KPD1 141019Z 15006KT M07/M12 A3029 RMK A01 T10691115  RH  070%=      5-min Rain = 0
KPD1 141020Z 15007KT M07/M12 A3029 RMK A01 T10691115  RH  070%=      5-min Rain = 0
KPD1 141021Z 15007KT M07/M12 A3029 RMK A01 T10691115  RH  070%=      5-min Rain = 0
KPD1 141022Z 14007KT M07/M12 A3029 RMK A01 T10691116  RH  070%=      5-min Rain = 0
KPD1 141023Z 15007KT M07/M12 A3029 RMK A01 T10701116  RH  070%=      5-min Rain = 0
KPD1 141024Z 15006KT M07/M12 A3029 RMK A01 T10701116  RH  070%=      5-min Rain = 0
KPD1 141025Z 15006KT M07/M12 A3029 RMK A01 T10701115  RH  070%=      5-min Rain = 0
KPD1 141026Z 14007KT M07/M12 A3029 RMK A01 T10701115  RH  070%=      5-min Rain = 0
KPD1 141027Z 15006KT M07/M12 A3029 RMK A01 T10701116  RH  070%=      5-min Rain = 0
KPD1 141028Z 15006KT M07/M12 A3029 RMK A01 T10701116  RH  070%=      5-min Rain = 0
KPD1 141029Z 15007KT M07/M12 A3029 RMK A01 T10701115  RH  070%=      5-min Rain = 0
KPD1 141030Z 15006KT M07/M12 A3029 RMK A01 T10701116  RH  070%=      5-min Rain = 0
KPD1 141031Z 15006KT M07/M12 A3029 RMK A01 T10701116  RH  070%=      5-min Rain = 0
KPD1 141032Z 15006KT M07/M12 A3029 RMK A01 T10701116  RH  070%=      5-min Rain = 0
KPD1 141033Z 15007KT M07/M12 A3029 RMK A01 T10701115  RH  070%=      5-min Rain = 0
KPD1 141034Z 15007KT M07/M12 A3029 RMK A01 T10701115  RH  070%=      5-min Rain = 0
KPD1 141035Z 16006KT M07/M12 A3029 RMK A01 T10701115  RH  070%=      5-min Rain = 0
KPD1 141036Z 15006KT M07/M12 A3029 RMK A01 T10701115  RH  070%=      5-min Rain = 0
KPD1 141037Z 14006KT M07/M12 A3029 RMK A01 T10701115  RH  070%=      5-min Rain = 0
KPD1 141038Z 15006KT M07/M12 A3029 RMK A01 T10701115  RH  070%=      5-min Rain = 0
KPD1 141039Z 14006KT M07/M12 A3029 RMK A01 T10701115  RH  070%=      5-min Rain = 0
KPD1 141040Z 15004KT M07/M12 A3029 RMK A01 T10701115  RH  070%=      5-min Rain = 0
KPD1 141041Z 15005KT M07/M11 A3029 RMK A01 T10701114  RH  071%=      5-min Rain = 0
KPD1 141042Z 13005KT M07/M11 A3029 RMK A01 T10701114  RH  071%=      5-min Rain = 0
KPD1 141043Z 14005KT M07/M11 A3029 RMK A01 T10701114  RH  071%=      5-min Rain = 0
KPD1 141044Z 15006KT M07/M11 A3029 RMK A01 T10701114  RH  070%=      5-min Rain = 0
KPD1 141045Z 15007KT M07/M11 A3029 RMK A01 T10701114  RH  070%=      5-min Rain = 0
KPD1 141046Z 14006KT M07/M11 A3029 RMK A01 T10701114  RH  071%=      5-min Rain = 0
KPD1 141047Z 15006KT M07/M11 A3029 RMK A01 T10701114  RH  071%=      5-min Rain = 0
KPD1 141048Z 15006KT M07/M12 A3028 RMK A01 T10701115  RH  071%=      5-min Rain = 0
KPD1 141049Z 15008KT M07/M12 A3028 RMK A01 T10701115  RH  071%=      5-min Rain = 0
KPD1 141050Z 15006KT M07/M12 A3028 RMK A01 T10701115  RH  071%=      5-min Rain = 0
KPD1 141051Z 14005KT M07/M11 A3028 RMK A01 T10701114  RH  071%=      5-min Rain = 0
KPD1 141052Z 15005KT M07/M11 A3028 RMK A01 T10701114  RH  071%=      5-min Rain = 0
KPD1 141053Z 15006KT M07/M11 A3028 RMK A01 T10701114  RH  071%=      5-min Rain = 0
KPD1 141054Z 15006KT M07/M11 A3028 RMK A01 T10711114  RH  071%=      5-min Rain = 0
KPD1 141055Z 15006KT M07/M11 A3028 RMK A01 T10701114  RH  071%=      5-min Rain = 0
KPD1 141056Z 15005KT M07/M11 A3028 RMK A01 T10711114  RH  071%=      5-min Rain = 0
KPD1 141057Z 14005KT M07/M11 A3028 RMK A01 T10711114  RH  071%=      5-min Rain = 0
KPD1 141058Z 14005KT M07/M11 A3028 RMK A01 T10711114  RH  071%=      5-min Rain = 0
KPD1 141059Z 15005KT M07/M11 A3028 RMK A01 T10701113  RH  071%=      5-min Rain = 0
KPD1 141100Z 15004KT M07/M11 A3028 RMK A01 T10701113  RH  071%=      5-min Rain = 0
KPD1 141101Z 14005KT M07/M11 A3028 RMK A01 T10701113  RH  071%=      5-min Rain = 0
KPD1 141102Z 14005KT M07/M11 A3028 RMK A01 T10701114  RH  071%=      5-min Rain = 0
KPD1 141103Z 14006KT M07/M11 A3028 RMK A01 T10701113  RH  071%=      5-min Rain = 0
KPD1 141104Z 15006KT M07/M11 A3028 RMK A01 T10701113  RH  071%=      5-min Rain = 0
KPD1 141105Z 15006KT M07/M11 A3028 RMK A01 T10711114  RH  071%=      5-min Rain = 0
KPD1 141106Z 15006KT M07/M11 A3028 RMK A01 T10711114  RH  071%=      5-min Rain = 0
KPD1 141107Z 15007KT M07/M11 A3028 RMK A01 T10711114  RH  071%=      5-min Rain = 0
KPD1 141108Z 15006KT M07/M11 A3028 RMK A01 T10711114  RH  071%=      5-min Rain = 0
KPD1 141109Z 16006KT M07/M11 A3028 RMK A01 T10711114  RH  071%=      5-min Rain = 0
KPD1 141110Z 15006KT M07/M11 A3028 RMK A01 T10711114  RH  072%=      5-min Rain = 0
KPD1 141111Z 15005KT M07/M11 A3028 RMK A01 T10711114  RH  072%=      5-min Rain = 0
KPD1 141112Z 15007KT M07/M11 A3028 RMK A01 T10711113  RH  072%=      5-min Rain = 0
KPD1 141113Z 16007KT M07/M11 A3029 RMK A01 T10711113  RH  072%=      5-min Rain = 0
KPD1 141114Z 15006KT M07/M11 A3029 RMK A01 T10711113  RH  072%=      5-min Rain = 0
KPD1 141115Z 14007KT M07/M11 A3029 RMK A01 T10711113  RH  072%=      5-min Rain = 0
KPD1 141116Z 15006KT M07/M11 A3028 RMK A01 T10711113  RH  072%=      5-min Rain = 0
KPD1 141117Z 15006KT M07/M11 A3028 RMK A01 T10711113  RH  072%=      5-min Rain = 0
KPD1 141118Z 15005KT M07/M11 A3029 RMK A01 T10711113  RH  072%=      5-min Rain = 0
KPD1 141119Z 15006KT M07/M11 A3029 RMK A01 T10711113  RH  072%=      5-min Rain = 0
KPD1 141120Z 15005KT M07/M11 A3029 RMK A01 T10711113  RH  072%=      5-min Rain = 0
KPD1 141121Z 16006KT M07/M11 A3029 RMK A01 T10711113  RH  072%=      5-min Rain = 0
KPD1 141122Z 15006KT M07/M11 A3029 RMK A01 T10711113  RH  072%=      5-min Rain = 0
KPD1 141123Z 15005KT M07/M11 A3029 RMK A01 T10711112  RH  072%=      5-min Rain = 0
KPD1 141124Z 16005KT M07/M11 A3029 RMK A01 T10711113  RH  072%=      5-min Rain = 0
KPD1 141125Z 15004KT M07/M11 A3029 RMK A01 T10711112  RH  072%=      5-min Rain = 0
KPD1 141126Z 15006KT M07/M11 A3029 RMK A01 T10711112  RH  073%=      5-min Rain = 0
KPD1 141127Z 15006KT M07/M11 A3029 RMK A01 T10711112  RH  073%=      5-min Rain = 0
KPD1 141128Z 15007KT M07/M11 A3029 RMK A01 T10711112  RH  072%=      5-min Rain = 0
KPD1 141129Z 15006KT M07/M11 A3029 RMK A01 T10711113  RH  072%=      5-min Rain = 0
KPD1 141130Z 15006KT M07/M11 A3029 RMK A01 T10721113  RH  073%=      5-min Rain = 0
KPD1 141131Z 16005KT M07/M11 A3029 RMK A01 T10721112  RH  073%=      5-min Rain = 0
KPD1 141132Z 15005KT M07/M11 A3029 RMK A01 T10711112  RH  073%=      5-min Rain = 0
KPD1 141133Z 15006KT M07/M11 A3029 RMK A01 T10711112  RH  073%=      5-min Rain = 0
KPD1 141134Z 16006KT M07/M11 A3029 RMK A01 T10721112  RH  073%=      5-min Rain = 0
KPD1 141135Z 15005KT M07/M11 A3029 RMK A01 T10711112  RH  073%=      5-min Rain = 0
KPD1 141136Z 14006KT M07/M11 A3029 RMK A01 T10721112  RH  073%=      5-min Rain = 0
KPD1 141137Z 15005KT M07/M11 A3029 RMK A01 T10711112  RH  073%=      5-min Rain = 0
KPD1 141138Z 15006KT M07/M11 A3029 RMK A01 T10721112  RH  073%=      5-min Rain = 0
KPD1 141139Z 14004KT M07/M11 A3029 RMK A01 T10711112  RH  073%=      5-min Rain = 0
KPD1 141140Z 15006KT M07/M11 A3029 RMK A01 T10711111  RH  073%=      5-min Rain = 0
KPD1 141141Z 14005KT M07/M11 A3029 RMK A01 T10711111  RH  073%=      5-min Rain = 0
KPD1 141142Z 14004KT M07/M11 A3029 RMK A01 T10711112  RH  073%=      5-min Rain = 0
KPD1 141143Z 15005KT M07/M11 A3029 RMK A01 T10711112  RH  073%=      5-min Rain = 0
KPD1 141144Z 15005KT M07/M11 A3029 RMK A01 T10711111  RH  073%=      5-min Rain = 0
KPD1 141145Z 14005KT M07/M11 A3029 RMK A01 T10711112  RH  073%=      5-min Rain = 0
KPD1 141146Z 14005KT M07/M11 A3029 RMK A01 T10721112  RH  073%=      5-min Rain = 0
KPD1 141147Z 15005KT M07/M11 A3029 RMK A01 T10721112  RH  073%=      5-min Rain = 0
KPD1 141148Z 15006KT M07/M11 A3029 RMK A01 T10711112  RH  073%=      5-min Rain = 0
KPD1 141149Z 15005KT M07/M11 A3029 RMK A01 T10721112  RH  073%=      5-min Rain = 0
KPD1 141150Z 15006KT M07/M11 A3029 RMK A01 T10721112  RH  073%=      5-min Rain = 0
KPD1 141151Z 14007KT M07/M11 A3029 RMK A01 T10721112  RH  073%=      5-min Rain = 0
KPD1 141152Z 15006KT M07/M11 A3029 RMK A01 T10721112  RH  073%=      5-min Rain = 0
KPD1 141153Z 15005KT M07/M11 A3029 RMK A01 T10721112  RH  073%=      5-min Rain = 0
KPD1 141154Z 15005KT M07/M11 A3029 RMK A01 T10711112  RH  073%=      5-min Rain = 0
KPD1 141155Z 15005KT M07/M11 A3029 RMK A01 T10711112  RH  073%=      5-min Rain = 0
KPD1 141156Z 15006KT M07/M11 A3029 RMK A01 T10721112  RH  073%=      5-min Rain = 0
KPD1 141157Z 15005KT M07/M11 A3029 RMK A01 T10721112  RH  073%=      5-min Rain = 0
KPD1 141158Z 15005KT M07/M11 A3029 RMK A01 T10721112  RH  073%=      5-min Rain = 0
KPD1 141159Z 15005KT M07/M11 A3029 RMK A01 T10711111  RH  073%=      5-min Rain = 0
KPD1 141200Z 14006KT M07/M11 A3029 RMK A01 T10721111  RH  073%=      5-min Rain = 0
KPD1 141201Z 15005KT M07/M11 A3029 RMK A01 T10721111  RH  073%=      5-min Rain = 0
KPD1 141202Z 15006KT M07/M11 A3029 RMK A01 T10711111  RH  073%=      5-min Rain = 0
KPD1 141203Z 15005KT M07/M11 A3029 RMK A01 T10711111  RH  073%=      5-min Rain = 0
KPD1 141204Z 15006KT M07/M11 A3029 RMK A01 T10711111  RH  073%=      5-min Rain = 0
KPD1 141205Z 15005KT M07/M11 A3029 RMK A01 T10711111  RH  073%=      5-min Rain = 0
KPD1 141206Z 15004KT M07/M11 A3029 RMK A01 T10711111  RH  073%=      5-min Rain = 0
KPD1 141207Z 15006KT M07/M11 A3029 RMK A01 T10711110  RH  074%=      5-min Rain = 0
KPD1 141208Z 15005KT M07/M11 A3029 RMK A01 T10711110  RH  073%=      5-min Rain = 0
KPD1 141209Z 14005KT M07/M11 A3029 RMK A01 T10711110  RH  073%=      5-min Rain = 0
KPD1 141210Z 15006KT M07/M11 A3029 RMK A01 T10711111  RH  073%=      5-min Rain = 0
KPD1 141211Z 15005KT M07/M11 A3029 RMK A01 T10711111  RH  073%=      5-min Rain = 0
KPD1 141212Z 15007KT M07/M11 A3029 RMK A01 T10711111  RH  073%=      5-min Rain = 0
KPD1 141213Z 15006KT M07/M11 A3029 RMK A01 T10711111  RH  073%=      5-min Rain = 0
KPD1 141214Z 16006KT M07/M11 A3029 RMK A01 T10711111  RH  073%=      5-min Rain = 0
KPD1 141215Z 16004KT M07/M11 A3029 RMK A01 T10711111  RH  073%=      5-min Rain = 0
KPD1 141216Z 15004KT M07/M11 A3029 RMK A01 T10711110  RH  073%=      5-min Rain = 0
KPD1 141217Z 16004KT M07/M11 A3029 RMK A01 T10701110  RH  074%=      5-min Rain = 0
KPD1 141218Z 15006KT M07/M11 A3029 RMK A01 T10711110  RH  074%=      5-min Rain = 0
KPD1 141219Z 15005KT M07/M11 A3029 RMK A01 T10711110  RH  073%=      5-min Rain = 0
KPD1 141220Z 15006KT M07/M11 A3029 RMK A01 T10711110  RH  073%=      5-min Rain = 0
KPD1 141221Z 16007KT M07/M11 A3029 RMK A01 T10711111  RH  073%=      5-min Rain = 0
KPD1 141222Z 15007KT M07/M11 A3029 RMK A01 T10701110  RH  073%=      5-min Rain = 0
KPD1 141223Z 15006KT M07/M11 A3029 RMK A01 T10711111  RH  073%=      5-min Rain = 0
KPD1 141224Z 15006KT M07/M11 A3029 RMK A01 T10711111  RH  073%=      5-min Rain = 0
KPD1 141225Z 15006KT M07/M11 A3029 RMK A01 T10711111  RH  073%=      5-min Rain = 0
KPD1 141226Z 14007KT M07/M11 A3029 RMK A01 T10711111  RH  073%=      5-min Rain = 0
KPD1 141227Z 15006KT M07/M11 A3029 RMK A01 T10711111  RH  073%=      5-min Rain = 0
KPD1 141228Z 15005KT M07/M11 A3029 RMK A01 T10711111  RH  073%=      5-min Rain = 0
KPD1 141229Z 15005KT M07/M11 A3029 RMK A01 T10711111  RH  073%=      5-min Rain = 0
KPD1 141230Z 15005KT M07/M11 A3029 RMK A01 T10711110  RH  074%=      5-min Rain = 0
KPD1 141231Z 15006KT M07/M11 A3029 RMK A01 T10711110  RH  074%=      5-min Rain = 0
KPD1 141232Z 15007KT M07/M11 A3029 RMK A01 T10711110  RH  074%=      5-min Rain = 0
KPD1 141233Z 16006KT M07/M11 A3029 RMK A01 T10711110  RH  074%=      5-min Rain = 0
KPD1 141234Z 16007KT M07/M11 A3029 RMK A01 T10711111  RH  074%=      5-min Rain = 0
KPD1 141235Z 16006KT M07/M11 A3029 RMK A01 T10711111  RH  073%=      5-min Rain = 0
KPD1 141236Z 15007KT M07/M11 A3028 RMK A01 T10711110  RH  074%=      5-min Rain = 0
KPD1 141237Z 15005KT M07/M11 A3028 RMK A01 T10711110  RH  074%=      5-min Rain = 0
KPD1 141238Z 15006KT M07/M11 A3028 RMK A01 T10711109  RH  074%=      5-min Rain = 0
KPD1 141239Z 15006KT M07/M11 A3028 RMK A01 T10711110  RH  074%=      5-min Rain = 0
KPD1 141240Z 15006KT M07/M11 A3028 RMK A01 T10711110  RH  074%=      5-min Rain = 0
KPD1 141241Z 15007KT M07/M11 A3028 RMK A01 T10711110  RH  074%=      5-min Rain = 0
KPD1 141242Z 16006KT M07/M11 A3028 RMK A01 T10701109  RH  074%=      5-min Rain = 0
KPD1 141243Z 16006KT M07/M11 A3028 RMK A01 T10711109  RH  074%=      5-min Rain = 0
KPD1 141244Z 15007KT M07/M11 A3029 RMK A01 T10711109  RH  074%=      5-min Rain = 0
KPD1 141245Z 15007KT M07/M11 A3029 RMK A01 T10711110  RH  074%=      5-min Rain = 0
KPD1 141246Z 15006KT M07/M11 A3029 RMK A01 T10711109  RH  074%=      5-min Rain = 0
KPD1 141247Z 14006KT M07/M11 A3029 RMK A01 T10701109  RH  074%=      5-min Rain = 0
KPD1 141248Z 15007KT M07/M11 A3029 RMK A01 T10711109  RH  074%=      5-min Rain = 0
KPD1 141249Z 16007KT M07/M11 A3029 RMK A01 T10711110  RH  074%=      5-min Rain = 0
KPD1 141250Z 15006KT M07/M11 A3029 RMK A01 T10711110  RH  074%=      5-min Rain = 0
KPD1 141251Z 15007KT M07/M11 A3029 RMK A01 T10711110  RH  074%=      5-min Rain = 0
KPD1 141252Z 16006KT M07/M11 A3029 RMK A01 T10711110  RH  074%=      5-min Rain = 0
KPD1 141253Z 15005KT M07/M11 A3028 RMK A01 T10711109  RH  074%=      5-min Rain = 0
KPD1 141254Z 15005KT M07/M11 A3028 RMK A01 T10701109  RH  074%=      5-min Rain = 0
KPD1 141255Z 16006KT M07/M11 A3028 RMK A01 T10711109  RH  074%=      5-min Rain = 0
KPD1 141256Z 15006KT M07/M11 A3028 RMK A01 T10711109  RH  074%=      5-min Rain = 0
KPD1 141257Z 16006KT M07/M11 A3028 RMK A01 T10711109  RH  074%=      5-min Rain = 0
KPD1 141258Z 15005KT M07/M11 A3028 RMK A01 T10711109  RH  074%=      5-min Rain = 0
KPD1 141259Z 16007KT M07/M11 A3028 RMK A01 T10701108  RH  074%=      5-min Rain = 0
KPD1 141300Z 15006KT M07/M11 A3028 RMK A01 T10701108  RH  074%=      5-min Rain = 0
KPD1 141301Z 15006KT M07/M11 A3028 RMK A01 T10701109  RH  074%=      5-min Rain = 0
KPD1 141302Z 15006KT M07/M11 A3028 RMK A01 T10701109  RH  074%=      5-min Rain = 0
KPD1 141303Z 16005KT M07/M11 A3028 RMK A01 T10701109  RH  074%=      5-min Rain = 0
KPD1 141304Z 16006KT M07/M11 A3028 RMK A01 T10701109  RH  074%=      5-min Rain = 0
KPD1 141305Z 14006KT M07/M11 A3028 RMK A01 T10701109  RH  074%=      5-min Rain = 0
KPD1 141306Z 16005KT M07/M11 A3028 RMK A01 T10701109  RH  074%=      5-min Rain = 0
KPD1 141307Z 15005KT M07/M11 A3028 RMK A01 T10701108  RH  074%=      5-min Rain = 0
KPD1 141308Z 15007KT M07/M11 A3028 RMK A01 T10701108  RH  074%=      5-min Rain = 0
KPD1 141309Z 15005KT M07/M11 A3029 RMK A01 T10701108  RH  074%=      5-min Rain = 0
KPD1 141310Z 15007KT M07/M11 A3029 RMK A01 T10701107  RH  074%=      5-min Rain = 0
KPD1 141311Z 15006KT M07/M11 A3028 RMK A01 T10701108  RH  074%=      5-min Rain = 0
KPD1 141312Z 15005KT M07/M11 A3028 RMK A01 T10701108  RH  074%=      5-min Rain = 0
KPD1 141313Z 16005KT M07/M11 A3028 RMK A01 T10701108  RH  074%=      5-min Rain = 0
KPD1 141314Z 16006KT M07/M11 A3029 RMK A01 T10701108  RH  074%=      5-min Rain = 0
KPD1 141315Z 15006KT M07/M11 A3029 RMK A01 T10701107  RH  074%=      5-min Rain = 0
KPD1 141316Z 15007KT M07/M11 A3029 RMK A01 T10701107  RH  074%=      5-min Rain = 0
KPD1 141317Z 16005KT M07/M11 A3029 RMK A01 T10701108  RH  074%=      5-min Rain = 0
KPD1 141318Z 16005KT M07/M11 A3029 RMK A01 T10701107  RH  074%=      5-min Rain = 0
KPD1 141319Z 16005KT M07/M11 A3029 RMK A01 T10701107  RH  075%=      5-min Rain = 0
KPD1 141320Z 16006KT M07/M11 A3029 RMK A01 T10691107  RH  075%=      5-min Rain = 0
KPD1 141321Z 16004KT M07/M11 A3029 RMK A01 T10691107  RH  075%=      5-min Rain = 0
KPD1 141322Z 16005KT M07/M11 A3029 RMK A01 T10691107  RH  075%=      5-min Rain = 0
KPD1 141323Z 15005KT M07/M11 A3029 RMK A01 T10691106  RH  075%=      5-min Rain = 0
KPD1 141324Z 16005KT M07/M11 A3029 RMK A01 T10691106  RH  075%=      5-min Rain = 0
KPD1 141325Z 15005KT M07/M11 A3029 RMK A01 T10691106  RH  075%=      5-min Rain = 0
KPD1 141326Z 15006KT M07/M11 A3029 RMK A01 T10691106  RH  075%=      5-min Rain = 0
KPD1 141327Z 15006KT M07/M11 A3029 RMK A01 T10691106  RH  075%=      5-min Rain = 0
KPD1 141328Z 15006KT M07/M11 A3029 RMK A01 T10691106  RH  075%=      5-min Rain = 0
KPD1 141329Z 15005KT M07/M11 A3029 RMK A01 T10691106  RH  075%=      5-min Rain = 0
KPD1 141330Z 16006KT M07/M11 A3029 RMK A01 T10691106  RH  075%=      5-min Rain = 0
KPD1 141331Z 15006KT M07/M11 A3029 RMK A01 T10691106  RH  075%=      5-min Rain = 0
KPD1 141332Z 16007KT M07/M11 A3029 RMK A01 T10691106  RH  075%=      5-min Rain = 0
KPD1 141333Z 15007KT M07/M11 A3029 RMK A01 T10681106  RH  075%=      5-min Rain = 0
KPD1 141334Z 16006KT M07/M11 A3029 RMK A01 T10681106  RH  075%=      5-min Rain = 0
KPD1 141335Z 16005KT M07/M11 A3029 RMK A01 T10681106  RH  075%=      5-min Rain = 0
KPD1 141336Z 15006KT M07/M11 A3029 RMK A01 T10681106  RH  075%=      5-min Rain = 0
KPD1 141337Z 16006KT M07/M11 A3029 RMK A01 T10691106  RH  075%=      5-min Rain = 0
KPD1 141338Z 16005KT M07/M11 A3029 RMK A01 T10681105  RH  075%=      5-min Rain = 0
KPD1 141339Z 17004KT M07/M11 A3029 RMK A01 T10681105  RH  075%=      5-min Rain = 0
KPD1 141340Z 15005KT M07/M11 A3029 RMK A01 T10681105  RH  075%=      5-min Rain = 0
KPD1 141341Z 16006KT M07/M11 A3029 RMK A01 T10681105  RH  075%=      5-min Rain = 0
KPD1 141342Z 15006KT M07/M11 A3029 RMK A01 T10681105  RH  075%=      5-min Rain = 0
KPD1 141343Z 15006KT M07/M11 A3029 RMK A01 T10681105  RH  075%=      5-min Rain = 0
KPD1 141344Z 16006KT M07/M11 A3029 RMK A01 T10681105  RH  075%=      5-min Rain = 0
KPD1 141345Z 15005KT M07/M11 A3029 RMK A01 T10681105  RH  075%=      5-min Rain = 0
KPD1 141346Z 15005KT M07/M10 A3029 RMK A01 T10671104  RH  075%=      5-min Rain = 0
KPD1 141347Z 15007KT M07/M11 A3029 RMK A01 T10681105  RH  075%=      5-min Rain = 0
KPD1 141348Z 16007KT M07/M11 A3029 RMK A01 T10681105  RH  075%=      5-min Rain = 0
KPD1 141349Z 15005KT M07/M11 A3029 RMK A01 T10671105  RH  075%=      5-min Rain = 0
KPD1 141350Z 15006KT M07/M10 A3029 RMK A01 T10671104  RH  075%=      5-min Rain = 0
KPD1 141351Z 15007KT M07/M10 A3029 RMK A01 T10671104  RH  075%=      5-min Rain = 0
KPD1 141352Z 16005KT M07/M10 A3029 RMK A01 T10671104  RH  075%=      5-min Rain = 0
KPD1 141353Z 16006KT M07/M11 A3029 RMK A01 T10671105  RH  075%=      5-min Rain = 0
KPD1 141354Z 16006KT M07/M10 A3029 RMK A01 T10671104  RH  075%=      5-min Rain = 0
KPD1 141355Z 16005KT M07/M10 A3029 RMK A01 T10671104  RH  075%=      5-min Rain = 0
KPD1 141356Z 16006KT M07/M10 A3029 RMK A01 T10661104  RH  075%=      5-min Rain = 0
KPD1 141357Z 16004KT M07/M10 A3029 RMK A01 T10661104  RH  075%=      5-min Rain = 0
KPD1 141358Z 16006KT M07/M10 A3029 RMK A01 T10661104  RH  075%=      5-min Rain = 0
KPD1 141359Z 15004KT M07/M10 A3029 RMK A01 T10661103  RH  075%=      5-min Rain = 0
KPD1 141400Z 16004KT M07/M10 A3029 RMK A01 T10661103  RH  075%=      5-min Rain = 0
KPD1 141401Z 16005KT M07/M10 A3029 RMK A01 T10661103  RH  075%=      5-min Rain = 0
KPD1 141402Z 15005KT M07/M10 A3029 RMK A01 T10661103  RH  075%=      5-min Rain = 0
KPD1 141403Z 15005KT M07/M10 A3029 RMK A01 T10651103  RH  075%=      5-min Rain = 0
KPD1 141404Z 17005KT M07/M10 A3029 RMK A01 T10651102  RH  075%=      5-min Rain = 0
KPD1 141405Z 17004KT M07/M10 A3029 RMK A01 T10651102  RH  075%=      5-min Rain = 0
KPD1 141406Z 16004KT M07/M10 A3029 RMK A01 T10651102  RH  075%=      5-min Rain = 0
KPD1 141407Z 16004KT M06/M10 A3029 RMK A01 T10641101  RH  075%=      5-min Rain = 0
KPD1 141408Z 16004KT M06/M10 A3029 RMK A01 T10641101  RH  075%=      5-min Rain = 0
KPD1 141409Z 16005KT M06/M10 A3029 RMK A01 T10641101  RH  075%=      5-min Rain = 0
KPD1 141410Z 16006KT M06/M10 A3029 RMK A01 T10631101  RH  075%=      5-min Rain = 0
KPD1 141411Z 15005KT M06/M10 A3029 RMK A01 T10631101  RH  075%=      5-min Rain = 0
KPD1 141412Z 16005KT M06/M10 A303 RMK A01 T10631101  RH  075%=      5-min Rain = 0
KPD1 141413Z 16005KT M06/M10 A303 RMK A01 T10631101  RH  075%=      5-min Rain = 0
KPD1 141414Z 15005KT M06/M10 A303 RMK A01 T10631101  RH  075%=      5-min Rain = 0
KPD1 141415Z 15006KT M06/M10 A303 RMK A01 T10631100  RH  075%=      5-min Rain = 0
KPD1 141416Z 15006KT M06/M10 A303 RMK A01 T10621101  RH  074%=      5-min Rain = 0
KPD1 141417Z 15005KT M06/M10 A303 RMK A01 T10621101  RH  074%=      5-min Rain = 0
KPD1 141418Z 15005KT M06/M10 A303 RMK A01 T10621100  RH  074%=      5-min Rain = 0
KPD1 141419Z 15005KT M06/M10 A303 RMK A01 T10631101  RH  074%=      5-min Rain = 0
KPD1 141420Z 15005KT M06/M10 A303 RMK A01 T10621101  RH  074%=      5-min Rain = 0
KPD1 141421Z 17004KT M06/M10 A303 RMK A01 T10631101  RH  074%=      5-min Rain = 0
KPD1 141422Z 17006KT M06/M10 A303 RMK A01 T10621100  RH  075%=      5-min Rain = 0
KPD1 141423Z 15005KT M06/M10 A303 RMK A01 T10611099  RH  075%=      5-min Rain = 0
KPD1 141424Z 16004KT M06/M10 A303 RMK A01 T10611099  RH  074%=      5-min Rain = 0
KPD1 141425Z 15004KT M06/M10 A303 RMK A01 T10611099  RH  074%=      5-min Rain = 0
KPD1 141426Z 16005KT M06/M10 A303 RMK A01 T10611099  RH  074%=      5-min Rain = 0
KPD1 141427Z 16005KT M06/M10 A303 RMK A01 T10611099  RH  074%=      5-min Rain = 0
KPD1 141428Z 16004KT M06/M10 A303 RMK A01 T10601098  RH  074%=      5-min Rain = 0
KPD1 141429Z 15003KT M06/M10 A303 RMK A01 T10601098  RH  074%=      5-min Rain = 0
KPD1 141430Z 16005KT M06/M10 A303 RMK A01 T10601098  RH  074%=      5-min Rain = 0
KPD1 141431Z 16004KT M06/M10 A303 RMK A01 T10601098  RH  074%=      5-min Rain = 0
KPD1 141432Z 16005KT M06/M10 A303 RMK A01 T10591098  RH  074%=      5-min Rain = 0
KPD1 141433Z 17005KT M06/M10 A303 RMK A01 T10591097  RH  074%=      5-min Rain = 0
KPD1 141434Z 15005KT M06/M10 A303 RMK A01 T10581097  RH  074%=      5-min Rain = 0
KPD1 141435Z 16004KT M06/M10 A303 RMK A01 T10581097  RH  074%=      5-min Rain = 0
KPD1 141436Z 16006KT M06/M10 A303 RMK A01 T10581097  RH  074%=      5-min Rain = 0
KPD1 141437Z 15005KT M06/M10 A303 RMK A01 T10581097  RH  074%=      5-min Rain = 0
KPD1 141438Z 16005KT M06/M10 A303 RMK A01 T10571096  RH  074%=      5-min Rain = 0
KPD1 141439Z 17005KT M06/M10 A303 RMK A01 T10571097  RH  074%=      5-min Rain = 0
KPD1 141440Z 18006KT M06/M10 A303 RMK A01 T10571096  RH  074%=      5-min Rain = 0
KPD1 141441Z 17009KT M06/M10 A303 RMK A01 T10561095  RH  074%=      5-min Rain = 0
KPD1 141442Z 19007KT M06/M10 A303 RMK A01 T10561095  RH  074%=      5-min Rain = 0
KPD1 141443Z 18005KT M06/M09 A303 RMK A01 T10551094  RH  074%=      5-min Rain = 0
KPD1 141444Z 15005KT M06/M09 A303 RMK A01 T10551094  RH  074%=      5-min Rain = 0
KPD1 141445Z 17005KT M06/M09 A303 RMK A01 T10551094  RH  074%=      5-min Rain = 0
KPD1 141446Z 18009KT M06/M09 A303 RMK A01 T10551094  RH  074%=      5-min Rain = 0
KPD1 141447Z 17008KT M06/M09 A303 RMK A01 T10551094  RH  074%=      5-min Rain = 0
KPD1 141448Z 17006KT M05/M09 A303 RMK A01 T10541093  RH  074%=      5-min Rain = 0
KPD1 141449Z 17006KT M05/M09 A303 RMK A01 T10541093  RH  074%=      5-min Rain = 0
KPD1 141450Z 17007KT M05/M09 A303 RMK A01 T10541094  RH  074%=      5-min Rain = 0
KPD1 141451Z 18007KT M05/M09 A303 RMK A01 T10541094  RH  074%=      5-min Rain = 0
KPD1 141452Z 17005KT M05/M09 A303 RMK A01 T10541093  RH  074%=      5-min Rain = 0
KPD1 141453Z 18006KT M05/M09 A303 RMK A01 T10531092  RH  074%=      5-min Rain = 0
KPD1 141454Z 18006KT M05/M09 A303 RMK A01 T10531091  RH  074%=      5-min Rain = 0
KPD1 141455Z 18007KT M05/M09 A303 RMK A01 T10531091  RH  074%=      5-min Rain = 0
KPD1 141456Z 18007KT M05/M09 A303 RMK A01 T10521089  RH  075%=      5-min Rain = 0
KPD1 141457Z 19007KT M05/M09 A303 RMK A01 T10511088  RH  075%=      5-min Rain = 0
KPD1 141458Z 16007KT M05/M09 A303 RMK A01 T10511087  RH  075%=      5-min Rain = 0
KPD1 141459Z 17008KT M05/M09 A303 RMK A01 T10501087  RH  075%=      5-min Rain = 0
KPD1 141500Z 18007KT M05/M09 A303 RMK A01 T10501087  RH  075%=      5-min Rain = 0
KPD1 141501Z 18008KT M05/M09 A303 RMK A01 T10501088  RH  075%=      5-min Rain = 0
KPD1 141502Z 18008KT M05/M09 A303 RMK A01 T10501087  RH  075%=      5-min Rain = 0
KPD1 141503Z 19011KT M05/M09 A303 RMK A01 T10491087  RH  075%=      5-min Rain = 0
KPD1 141504Z 17009KT M05/M09 A303 RMK A01 T10491086  RH  075%=      5-min Rain = 0
KPD1 141505Z 17009KT M05/M09 A303 RMK A01 T10491085  RH  076%=      5-min Rain = 0
KPD1 141506Z 18008KT M05/M09 A303 RMK A01 T10481085  RH  076%=      5-min Rain = 0
KPD1 141507Z 18007KT M05/M08 A303 RMK A01 T10481084  RH  076%=      5-min Rain = 0
KPD1 141508Z 18009KT M05/M08 A303 RMK A01 T10481083  RH  076%=      5-min Rain = 0
KPD1 141509Z 19009KT M05/M08 A303 RMK A01 T10471083  RH  076%=      5-min Rain = 0
KPD1 141510Z 19010KT M05/M08 A303 RMK A01 T10471083  RH  076%=      5-min Rain = 0
KPD1 141511Z 18008KT M05/M08 A303 RMK A01 T10471083  RH  076%=      5-min Rain = 0
KPD1 141512Z 18008KT M05/M08 A303 RMK A01 T10471082  RH  076%=      5-min Rain = 0
KPD1 141513Z 18008KT M05/M08 A303 RMK A01 T10461081  RH  076%=      5-min Rain = 0
KPD1 141514Z 17007KT M05/M08 A303 RMK A01 T10461081  RH  076%=      5-min Rain = 0
KPD1 141515Z 17010KT M05/M08 A3029 RMK A01 T10461081  RH  076%=      5-min Rain = 0
KPD1 141516Z 18009KT M05/M08 A3029 RMK A01 T10461082  RH  076%=      5-min Rain = 0
KPD1 141517Z 17009KT M05/M08 A3029 RMK A01 T10461081  RH  076%=      5-min Rain = 0
KPD1 141518Z 18009KT M05/M08 A3029 RMK A01 T10461081  RH  076%=      5-min Rain = 0
KPD1 141519Z 18008KT M05/M08 A3029 RMK A01 T10461081  RH  076%=      5-min Rain = 0
KPD1 141520Z 17008KT M05/M08 A3029 RMK A01 T10451081  RH  076%=      5-min Rain = 0
KPD1 141521Z 17009KT M05/M08 A3029 RMK A01 T10451081  RH  076%=      5-min Rain = 0
KPD1 141522Z 18010KT M05/M08 A3029 RMK A01 T10451081  RH  076%=      5-min Rain = 0
KPD1 141523Z 18011G16KT M05/M08 A3029 RMK A01 T10451080  RH  076%=      5-min Rain = 0
KPD1 141524Z 17009KT M05/M08 A3029 RMK A01 T10451080  RH  076%=      5-min Rain = 0
KPD1 141525Z 17008KT M05/M08 A3029 RMK A01 T10451080  RH  076%=      5-min Rain = 0
KPD1 141526Z 18009KT M04/M08 A3029 RMK A01 T10441080  RH  076%=      5-min Rain = 0
KPD1 141527Z 17010KT M04/M08 A3029 RMK A01 T10441079  RH  076%=      5-min Rain = 0
KPD1 141528Z 18009KT M04/M08 A3029 RMK A01 T10431079  RH  077%=      5-min Rain = 0
KPD1 141529Z 18012KT M04/M08 A3029 RMK A01 T10431079  RH  076%=      5-min Rain = 0
KPD1 141530Z 18010KT M04/M08 A3029 RMK A01 T10441079  RH  076%=      5-min Rain = 0
KPD1 141531Z 18012KT M04/M08 A3029 RMK A01 T10441079  RH  076%=      5-min Rain = 0
KPD1 141532Z 17012KT M04/M08 A3029 RMK A01 T10441079  RH  076%=      5-min Rain = 0
KPD1 141533Z 18010KT M04/M08 A3029 RMK A01 T10441078  RH  077%=      5-min Rain = 0
KPD1 141534Z 16009KT M04/M08 A3029 RMK A01 T10431077  RH  077%=      5-min Rain = 0
KPD1 141535Z 17011KT M04/M08 A3029 RMK A01 T10431077  RH  077%=      5-min Rain = 0
KPD1 141536Z 18012KT M04/M08 A3029 RMK A01 T10421077  RH  077%=      5-min Rain = 0
KPD1 141537Z 17012KT M04/M08 A3029 RMK A01 T10421077  RH  077%=      5-min Rain = 0
KPD1 141538Z 19010KT M04/M08 A3029 RMK A01 T10421077  RH  077%=      5-min Rain = 0
KPD1 141539Z 17008KT M04/M08 A3029 RMK A01 T10421076  RH  077%=      5-min Rain = 0
KPD1 141540Z 18011KT M04/M08 A3029 RMK A01 T10421076  RH  077%=      5-min Rain = 0
KPD1 141541Z 18009KT M04/M08 A3029 RMK A01 T10421075  RH  077%=      5-min Rain = 0
KPD1 141542Z 19011KT M04/M07 A3029 RMK A01 T10411074  RH  078%=      5-min Rain = 0
KPD1 141543Z 17011KT M04/M08 A3029 RMK A01 T10411075  RH  077%=      5-min Rain = 0
KPD1 141544Z 18010KT M04/M08 A3029 RMK A01 T10411075  RH  077%=      5-min Rain = 0
KPD1 141545Z 17009KT M04/M08 A3029 RMK A01 T10411075  RH  077%=      5-min Rain = 0
KPD1 141546Z 17009KT M04/M07 A3029 RMK A01 T10411074  RH  078%=      5-min Rain = 0
KPD1 141547Z 18010KT M04/M07 A3029 RMK A01 T10411074  RH  078%=      5-min Rain = 0
KPD1 141548Z 18011KT M04/M07 A3029 RMK A01 T10411074  RH  078%=      5-min Rain = 0
KPD1 141549Z 18011KT M04/M07 A3029 RMK A01 T10401073  RH  078%=      5-min Rain = 0
KPD1 141550Z 18011KT M04/M07 A3029 RMK A01 T10401073  RH  078%=      5-min Rain = 0
KPD1 141551Z 17009G14KT M04/M07 A3029 RMK A01 T10401073  RH  078%=      5-min Rain = 0
KPD1 141552Z 18011G16KT M04/M07 A3029 RMK A01 T10401072  RH  078%=      5-min Rain = 0
KPD1 141553Z 20009KT M04/M07 A3029 RMK A01 T10391072  RH  078%=      5-min Rain = 0
KPD1 141554Z 18008KT M04/M07 A3029 RMK A01 T10401072  RH  078%=      5-min Rain = 0
KPD1 141555Z 18009KT M04/M07 A3029 RMK A01 T10401071  RH  079%=      5-min Rain = 0
KPD1 141556Z 19009KT M04/M07 A3029 RMK A01 T10391071  RH  079%=      5-min Rain = 0
KPD1 141557Z 18009KT M04/M07 A3029 RMK A01 T10391071  RH  079%=      5-min Rain = 0
KPD1 141558Z 18009KT M04/M07 A3029 RMK A01 T10391071  RH  079%=      5-min Rain = 0
KPD1 141559Z 17010KT M04/M07 A3029 RMK A01 T10381070  RH  079%=      5-min Rain = 0
KPD1 141600Z 17012KT M04/M07 A3029 RMK A01 T10381070  RH  078%=      5-min Rain = 0
KPD1 141601Z 17011KT M04/M07 A3029 RMK A01 T10381070  RH  079%=      5-min Rain = 0
KPD1 141602Z 19010KT M04/M07 A3029 RMK A01 T10381070  RH  079%=      5-min Rain = 0
KPD1 141603Z 19010KT M04/M07 A3029 RMK A01 T10381069  RH  079%=      5-min Rain = 0
KPD1 141604Z 18010KT M04/M07 A3029 RMK A01 T10381069  RH  079%=      5-min Rain = 0
KPD1 141605Z 18007KT M04/M07 A3029 RMK A01 T10381069  RH  079%=      5-min Rain = 0
KPD1 141606Z 18007KT M04/M07 A3029 RMK A01 T10381068  RH  079%=      5-min Rain = 0
KPD1 141607Z 20007KT M04/M07 A3029 RMK A01 T10371067  RH  079%=      5-min Rain = 0
KPD1 141608Z 17007KT M04/M07 A3029 RMK A01 T10361067  RH  079%=      5-min Rain = 0
KPD1 141609Z 18007KT M04/M07 A3029 RMK A01 T10361067  RH  079%=      5-min Rain = 0
KPD1 141610Z 17007KT M04/M07 A3029 RMK A01 T10351066  RH  079%=      5-min Rain = 0
KPD1 141611Z 18007KT M03/M07 A3029 RMK A01 T10341065  RH  079%=      5-min Rain = 0
KPD1 141612Z 17006KT M03/M07 A3029 RMK A01 T10341065  RH  079%=      5-min Rain = 0
KPD1 141613Z 17007KT M03/M07 A3029 RMK A01 T10341066  RH  079%=      5-min Rain = 0
KPD1 141614Z 17010KT M03/M07 A3029 RMK A01 T10341066  RH  079%=      5-min Rain = 0
KPD1 141615Z 17008KT M03/M07 A3029 RMK A01 T10341066  RH  078%=      5-min Rain = 0
KPD1 141616Z 17007KT M03/M07 A3029 RMK A01 T10341066  RH  078%=      5-min Rain = 0
KPD1 141617Z 17008KT M03/M07 A3029 RMK A01 T10341066  RH  079%=      5-min Rain = 0
KPD1 141618Z 17009KT M03/M07 A3029 RMK A01 T10341066  RH  079%=      5-min Rain = 0
KPD1 141619Z 17009KT M04/M07 A3029 RMK A01 T10351066  RH  079%=      5-min Rain = 0
KPD1 141620Z 16009KT M04/M07 A3028 RMK A01 T10351066  RH  079%=      5-min Rain = 0
KPD1 141621Z 16009KT M04/M07 A3028 RMK A01 T10351065  RH  079%=      5-min Rain = 0
KPD1 141622Z 17010KT M03/M07 A3028 RMK A01 T10341065  RH  080%=      5-min Rain = 0
KPD1 141623Z 17009KT M03/M06 A3028 RMK A01 T10341064  RH  080%=      5-min Rain = 0
KPD1 141624Z 16009KT M03/M06 A3028 RMK A01 T10341063  RH  080%=      5-min Rain = 0
KPD1 141625Z 16010KT M03/M06 A3028 RMK A01 T10331062  RH  080%=      5-min Rain = 0
KPD1 141626Z 17008KT M03/M06 A3028 RMK A01 T10331062  RH  080%=      5-min Rain = 0
KPD1 141627Z 17009KT M03/M06 A3028 RMK A01 T10331063  RH  080%=      5-min Rain = 0
KPD1 141628Z 19008KT M03/M06 A3028 RMK A01 T10331062  RH  080%=      5-min Rain = 0
KPD1 141629Z 19009KT M03/M06 A3028 RMK A01 T10331062  RH  081%=      5-min Rain = 0
KPD1 141630Z 19008KT M03/M06 A3028 RMK A01 T10331061  RH  081%=      5-min Rain = 0
KPD1 141631Z 17009KT M03/M06 A3028 RMK A01 T10321060  RH  081%=      5-min Rain = 0
KPD1 141632Z 17009KT M03/M06 A3028 RMK A01 T10321060  RH  081%=      5-min Rain = 0
KPD1 141633Z 18010KT M03/M06 A3028 RMK A01 T10321061  RH  081%=      5-min Rain = 0
KPD1 141634Z 18008KT M03/M06 A3028 RMK A01 T10321061  RH  081%=      5-min Rain = 0
KPD1 141635Z 17007KT M03/M06 A3028 RMK A01 T10321061  RH  081%=      5-min Rain = 0
KPD1 141636Z 17007KT M03/M06 A3028 RMK A01 T10321060  RH  081%=      5-min Rain = 0
KPD1 141637Z 17008KT M03/M06 A3028 RMK A01 T10321060  RH  081%=      5-min Rain = 0
KPD1 141638Z 18008KT M03/M06 A3028 RMK A01 T10311059  RH  081%=      5-min Rain = 0
KPD1 141639Z 17008KT M03/M06 A3028 RMK A01 T10311060  RH  081%=      5-min Rain = 0
KPD1 141640Z 17009KT M03/M06 A3029 RMK A01 T10311060  RH  081%=      5-min Rain = 0
KPD1 141641Z 17010KT M03/M06 A3029 RMK A01 T10311060  RH  081%=      5-min Rain = 0
KPD1 141642Z 17008KT M03/M06 A3028 RMK A01 T10311060  RH  081%=      5-min Rain = 0
KPD1 141643Z 18008KT M03/M06 A3029 RMK A01 T10321060  RH  081%=      5-min Rain = 0
KPD1 141644Z 17008KT M03/M06 A3028 RMK A01 T10311059  RH  081%=      5-min Rain = 0
KPD1 141645Z 18009KT M03/M06 A3029 RMK A01 T10311059  RH  081%=      5-min Rain = 0
KPD1 141646Z 17008KT M03/M06 A3029 RMK A01 T10311059  RH  082%=      5-min Rain = 0
KPD1 141647Z 18010KT M03/M06 A3028 RMK A01 T10311058  RH  082%=      5-min Rain = 0
KPD1 141648Z 18010KT M03/M06 A3028 RMK A01 T10311057  RH  082%=      5-min Rain = 0
KPD1 141649Z 18009KT M03/M06 A3028 RMK A01 T10311057  RH  082%=      5-min Rain = 0
KPD1 141650Z 18007KT M03/M06 A3028 RMK A01 T10321058  RH  082%=      5-min Rain = 0
KPD1 141651Z 16009KT M03/M06 A3028 RMK A01 T10321057  RH  083%=      5-min Rain = 0
KPD1 141652Z 18009KT M03/M06 A3028 RMK A01 T10321057  RH  083%=      5-min Rain = 0
KPD1 141653Z 18009KT M03/M06 A3028 RMK A01 T10321057  RH  083%=      5-min Rain = 0
KPD1 141654Z 18007KT M03/M06 A3028 RMK A01 T10321057  RH  083%=      5-min Rain = 0
KPD1 141655Z 17007KT M03/M06 A3028 RMK A01 T10321057  RH  083%=      5-min Rain = 0
KPD1 141656Z 17009KT M03/M06 A3028 RMK A01 T10321056  RH  084%=      5-min Rain = 0
KPD1 141657Z 17008KT M03/M06 A3028 RMK A01 T10311056  RH  083%=      5-min Rain = 0
KPD1 141658Z 18008KT M03/M06 A3028 RMK A01 T10311056  RH  083%=      5-min Rain = 0
KPD1 141659Z 18010KT M03/M06 A3028 RMK A01 T10311056  RH  083%=      5-min Rain = 0
KPD1 141700Z 19011KT M03/M06 A3028 RMK A01 T10321056  RH  083%=      5-min Rain = 0
KPD1 141701Z 19008KT M03/M06 A3028 RMK A01 T10321056  RH  083%=      5-min Rain = 0
KPD1 141702Z 18007KT M03/M06 A3028 RMK A01 T10311055  RH  083%=      5-min Rain = 0
KPD1 141703Z 19007KT M03/M05 A3028 RMK A01 T10301054  RH  083%=      5-min Rain = 0
KPD1 141704Z 17008KT M03/M05 A3028 RMK A01 T10291053  RH  083%=      5-min Rain = 0
KPD1 141705Z 18007KT M03/M05 A3028 RMK A01 T10281053  RH  083%=      5-min Rain = 0
KPD1 141706Z 16008KT M03/M05 A3028 RMK A01 T10281054  RH  082%=      5-min Rain = 0
KPD1 141707Z 17009KT M03/M06 A3028 RMK A01 T10281055  RH  082%=      5-min Rain = 0
KPD1 141708Z 16010KT M03/M06 A3027 RMK A01 T10291056  RH  082%=      5-min Rain = 0
KPD1 141709Z 17009KT M03/M06 A3027 RMK A01 T10301056  RH  082%=      5-min Rain = 0
KPD1 141710Z 19009KT M03/M06 A3027 RMK A01 T10301055  RH  083%=      5-min Rain = 0
KPD1 141711Z 18009KT M03/M05 A3027 RMK A01 T10301054  RH  083%=      5-min Rain = 0
KPD1 141712Z 17010KT M03/M05 A3027 RMK A01 T10301054  RH  083%=      5-min Rain = 0
KPD1 141713Z 18009KT M03/M05 A3027 RMK A01 T10291053  RH  083%=      5-min Rain = 0
KPD1 141714Z 18009KT M03/M05 A3027 RMK A01 T10291053  RH  083%=      5-min Rain = 0
KPD1 141715Z 17008G13KT M03/M05 A3027 RMK A01 T10291053  RH  084%=      5-min Rain = 0
KPD1 141716Z 17010KT M03/M05 A3027 RMK A01 T10291052  RH  084%=      5-min Rain = 0
KPD1 141717Z 19009KT M03/M05 A3027 RMK A01 T10281052  RH  084%=      5-min Rain = 0
KPD1 141718Z 18009KT M03/M05 A3027 RMK A01 T10281051  RH  084%=      5-min Rain = 0
KPD1 141719Z 18007KT M03/M05 A3027 RMK A01 T10281052  RH  084%=      5-min Rain = 0
KPD1 141720Z 18007KT M03/M05 A3027 RMK A01 T10281051  RH  084%=      5-min Rain = 0
KPD1 141721Z 16009G14KT M03/M05 A3027 RMK A01 T10271050  RH  084%=      5-min Rain = 0
KPD1 141722Z 17012KT M03/M05 A3027 RMK A01 T10261050  RH  084%=      5-min Rain = 0
KPD1 141723Z 18010KT M03/M05 A3027 RMK A01 T10261050  RH  084%=      5-min Rain = 0
KPD1 141724Z 18009KT M03/M05 A3027 RMK A01 T10261050  RH  084%=      5-min Rain = 0
KPD1 141725Z 16008KT M03/M05 A3026 RMK A01 T10261050  RH  084%=      5-min Rain = 0
KPD1 141726Z 18010KT M03/M05 A3026 RMK A01 T10271050  RH  084%=      5-min Rain = 0
KPD1 141727Z 19008KT M03/M05 A3026 RMK A01 T10261049  RH  084%=      5-min Rain = 0
KPD1 141728Z 18009KT M03/M05 A3026 RMK A01 T10251048  RH  084%=      5-min Rain = 0
KPD1 141729Z 18006KT M03/M05 A3026 RMK A01 T10251049  RH  084%=      5-min Rain = 0
KPD1 141730Z 19010KT M03/M05 A3026 RMK A01 T10251048  RH  084%=      5-min Rain = 0
KPD1 141731Z 19009KT M02/M05 A3026 RMK A01 T10241048  RH  084%=      5-min Rain = 0
KPD1 141732Z 18010KT M02/M05 A3026 RMK A01 T10241048  RH  084%=      5-min Rain = 0
KPD1 141733Z 18009KT M02/M05 A3026 RMK A01 T10241048  RH  084%=      5-min Rain = 0
KPD1 141734Z 17008KT M02/M05 A3026 RMK A01 T10241048  RH  083%=      5-min Rain = 0
KPD1 141735Z 17010KT M02/M05 A3026 RMK A01 T10231047  RH  083%=      5-min Rain = 0
KPD1 141736Z 18010KT M02/M05 A3026 RMK A01 T10231047  RH  083%=      5-min Rain = 0
KPD1 141737Z 18011KT M02/M05 A3026 RMK A01 T10231047  RH  083%=      5-min Rain = 0
KPD1 141738Z 18011KT M02/M05 A3026 RMK A01 T10231047  RH  083%=      5-min Rain = 0
KPD1 141739Z 18011KT M02/M05 A3026 RMK A01 T10221046  RH  084%=      5-min Rain = 0
KPD1 141740Z 19010KT M02/M05 A3026 RMK A01 T10221046  RH  084%=      5-min Rain = 0
KPD1 141741Z 19009KT M02/M05 A3026 RMK A01 T10221045  RH  084%=      5-min Rain = 0
KPD1 141742Z 18007KT M02/M05 A3026 RMK A01 T10211045  RH  084%=      5-min Rain = 0
KPD1 141743Z 19008KT M02/M04 A3026 RMK A01 T10211044  RH  084%=      5-min Rain = 0
KPD1 141744Z 18007KT M02/M04 A3026 RMK A01 T10201044  RH  084%=      5-min Rain = 0
KPD1 141745Z 18008KT M02/M04 A3026 RMK A01 T10191043  RH  084%=      5-min Rain = 0
KPD1 141746Z 19009KT M02/M04 A3026 RMK A01 T10171042  RH  084%=      5-min Rain = 0
KPD1 141747Z 19009KT M02/M04 A3026 RMK A01 T10171042  RH  083%=      5-min Rain = 0
KPD1 141748Z 20007KT M02/M04 A3026 RMK A01 T10171042  RH  083%=      5-min Rain = 0
KPD1 141749Z 19009KT M02/M04 A3026 RMK A01 T10161041  RH  083%=      5-min Rain = 0
KPD1 141750Z 19008KT M02/M04 A3026 RMK A01 T10151040  RH  083%=      5-min Rain = 0
KPD1 141751Z 19011KT M02/M04 A3026 RMK A01 T10151041  RH  083%=      5-min Rain = 0
KPD1 141752Z 19011KT M02/M04 A3026 RMK A01 T10151041  RH  082%=      5-min Rain = 0
KPD1 141753Z 20010KT M02/M04 A3026 RMK A01 T10151041  RH  083%=      5-min Rain = 0
KPD1 141754Z 18011KT M02/M04 A3026 RMK A01 T10151040  RH  083%=      5-min Rain = 0
KPD1 141755Z 19009KT M02/M04 A3026 RMK A01 T10151040  RH  083%=      5-min Rain = 0
KPD1 141756Z 19011KT M02/M04 A3026 RMK A01 T10151041  RH  083%=      5-min Rain = 0
KPD1 141757Z 20011KT M02/M04 A3026 RMK A01 T10151040  RH  083%=      5-min Rain = 0
KPD1 141758Z 19009KT M02/M04 A3026 RMK A01 T10151040  RH  083%=      5-min Rain = 0
KPD1 141759Z 18012KT M02/M04 A3025 RMK A01 T10151039  RH  083%=      5-min Rain = 0
KPD1 141800Z 19011KT M02/M04 A3025 RMK A01 T10151040  RH  083%=      5-min Rain = 0
KPD1 141801Z 19010KT M02/M04 A3025 RMK A01 T10151040  RH  083%=      5-min Rain = 0
KPD1 141802Z 18010KT M02/M04 A3025 RMK A01 T10151040  RH  083%=      5-min Rain = 0
KPD1 141803Z 20009KT M01/M04 A3025 RMK A01 T10141038  RH  084%=      5-min Rain = 0
KPD1 141804Z 20013KT M01/M04 A3025 RMK A01 T10121037  RH  084%=      5-min Rain = 0
KPD1 141805Z 19011KT M01/M04 A3025 RMK A01 T10121037  RH  083%=      5-min Rain = 0
KPD1 141806Z 19012KT M01/M04 A3025 RMK A01 T10121037  RH  083%=      5-min Rain = 0
KPD1 141807Z 18010KT M01/M04 A3025 RMK A01 T10121037  RH  083%=      5-min Rain = 0
KPD1 141808Z 19014KT M01/M04 A3025 RMK A01 T10121037  RH  083%=      5-min Rain = 0
KPD1 141809Z 18010KT M01/M04 A3025 RMK A01 T10121038  RH  083%=      5-min Rain = 0
KPD1 141810Z 19011KT M01/M04 A3025 RMK A01 T10121038  RH  083%=      5-min Rain = 0
KPD1 141811Z 19010KT M01/M04 A3025 RMK A01 T10121037  RH  083%=      5-min Rain = 0
KPD1 141812Z 20010KT M01/M04 A3025 RMK A01 T10111036  RH  083%=      5-min Rain = 0
KPD1 141813Z 20012KT M01/M04 A3025 RMK A01 T10101035  RH  083%=      5-min Rain = 0
KPD1 141814Z 20012G18KT M01/M04 A3024 RMK A01 T10101036  RH  083%=      5-min Rain = 0
KPD1 141815Z 20011KT M01/M04 A3024 RMK A01 T10101036  RH  083%=      5-min Rain = 0
KPD1 141816Z 19011KT M01/M04 A3024 RMK A01 T10101036  RH  083%=      5-min Rain = 0
KPD1 141817Z 19011KT M01/M04 A3024 RMK A01 T10111036  RH  083%=      5-min Rain = 0
KPD1 141818Z 20010KT M01/M04 A3024 RMK A01 T10111036  RH  083%=      5-min Rain = 0
KPD1 141819Z 18008G13KT M01/M04 A3024 RMK A01 T10101035  RH  083%=      5-min Rain = 0
KPD1 141820Z 18010KT M01/M04 A3024 RMK A01 T10101035  RH  083%=      5-min Rain = 0
KPD1 141821Z 17010KT M01/M04 A3024 RMK A01 T10091035  RH  083%=      5-min Rain = 0
KPD1 141822Z 18011KT M01/M04 A3024 RMK A01 T10091035  RH  082%=      5-min Rain = 0
KPD1 141823Z 19013KT M01/M04 A3024 RMK A01 T10091035  RH  082%=      5-min Rain = 0
KPD1 141824Z 19012KT M01/M04 A3024 RMK A01 T10101035  RH  083%=      5-min Rain = 0
KPD1 141825Z 19012KT M01/M04 A3024 RMK A01 T10091035  RH  083%=      5-min Rain = 0
KPD1 141826Z 19010KT M01/M04 A3024 RMK A01 T10101035  RH  083%=      5-min Rain = 0
KPD1 141827Z 18009G14KT M01/M03 A3024 RMK A01 T10091034  RH  083%=      5-min Rain = 0
KPD1 141828Z 18010KT M01/M03 A3024 RMK A01 T10081033  RH  083%=      5-min Rain = 0
KPD1 141829Z 19013KT M01/M03 A3024 RMK A01 T10081033  RH  083%=      5-min Rain = 0
KPD1 141830Z 20013KT M01/M03 A3023 RMK A01 T10081033  RH  083%=      5-min Rain = 0
KPD1 141831Z 19011KT M01/M03 A3023 RMK A01 T10081033  RH  083%=      5-min Rain = 0
KPD1 141832Z 20011KT M01/M03 A3023 RMK A01 T10071033  RH  083%=      5-min Rain = 0
KPD1 141833Z 19010KT M01/M03 A3023 RMK A01 T10061032  RH  083%=      5-min Rain = 0
KPD1 141834Z 18010KT M01/M03 A3023 RMK A01 T10061032  RH  083%=      5-min Rain = 0
KPD1 141835Z 19011KT M01/M03 A3023 RMK A01 T10061032  RH  082%=      5-min Rain = 0
KPD1 141836Z 18012G18KT M01/M03 A3023 RMK A01 T10061032  RH  082%=      5-min Rain = 0
KPD1 141837Z 20010KT M01/M03 A3023 RMK A01 T10051032  RH  082%=      5-min Rain = 0
KPD1 141838Z 19012KT M01/M03 A3023 RMK A01 T10051031  RH  082%=      5-min Rain = 0
KPD1 141839Z 19012KT M00/M03 A3023 RMK A01 T10041031  RH  082%=      5-min Rain = 0
KPD1 141840Z 19011KT M00/M03 A3023 RMK A01 T10041031  RH  082%=      5-min Rain = 0
KPD1 141841Z 20015KT M00/M03 A3022 RMK A01 T10031030  RH  082%=      5-min Rain = 0
KPD1 141842Z 20011KT M00/M03 A3022 RMK A01 T10031031  RH  082%=      5-min Rain = 0
KPD1 141843Z 20011G17KT M00/M03 A3022 RMK A01 T10041031  RH  082%=      5-min Rain = 0
KPD1 141844Z 19014KT M00/M03 A3022 RMK A01 T10041031  RH  082%=      5-min Rain = 0
KPD1 141845Z 20012KT M00/M03 A3022 RMK A01 T10031031  RH  082%=      5-min Rain = 0
KPD1 141846Z 19013KT M00/M03 A3022 RMK A01 T10031030  RH  082%=      5-min Rain = 0
KPD1 141847Z 20012KT M00/M03 A3022 RMK A01 T10021030  RH  082%=      5-min Rain = 0
KPD1 141848Z 20014G19KT M00/M03 A3022 RMK A01 T10021030  RH  082%=      5-min Rain = 0
KPD1 141849Z 21013KT M00/M03 A3022 RMK A01 T10021030  RH  081%=      5-min Rain = 0
KPD1 141850Z 20013G18KT M00/M03 A3022 RMK A01 T10021030  RH  081%=      5-min Rain = 0
KPD1 141851Z 20011KT M00/M03 A3022 RMK A01 T10021030  RH  081%=      5-min Rain = 0
KPD1 141852Z 20011KT M00/M03 A3022 RMK A01 T10011029  RH  081%=      5-min Rain = 0
KPD1 141853Z 20010KT M00/M03 A3022 RMK A01 T10011029  RH  082%=      5-min Rain = 0
KPD1 141854Z 19010KT 00/03 A3022 RMK A01 T00-00-28  RH  081%=      5-min Rain = 0
KPD1 141855Z 20012KT 00/M03 A3021 RMK A01 T00011028  RH  081%=      5-min Rain = 0
KPD1 141856Z 20012KT 00/M03 A3021 RMK A01 T00011028  RH  081%=      5-min Rain = 0
KPD1 141857Z 20013KT 00/M03 A3021 RMK A01 T00011029  RH  081%=      5-min Rain = 0
KPD1 141858Z 20010KT 00/M03 A3021 RMK A01 T00011028  RH  080%=      5-min Rain = 0
KPD1 141859Z 20010KT 00/M03 A3021 RMK A01 T00011029  RH  080%=      5-min Rain = 0
KPD1 141900Z 19007KT 00/M03 A3021 RMK A01 T00011029  RH  081%=      5-min Rain = 0
KPD1 141901Z 19010KT 00/M03 A3021 RMK A01 T00021028  RH  081%=      5-min Rain = 0
KPD1 141902Z 20009KT 00/M03 A3021 RMK A01 T00021028  RH  080%=      5-min Rain = 0
KPD1 141903Z 18012KT 00/M03 A3021 RMK A01 T00021027  RH  080%=      5-min Rain = 0
KPD1 141904Z 18011KT 00/M03 A3021 RMK A01 T00021028  RH  080%=      5-min Rain = 0
KPD1 141905Z 19011KT 00/M03 A3021 RMK A01 T00021028  RH  080%=      5-min Rain = 0
KPD1 141906Z 19014KT 00/M03 A3021 RMK A01 T00021028  RH  080%=      5-min Rain = 0
KPD1 141907Z 18012G18KT 00/M03 A3021 RMK A01 T00021028  RH  080%=      5-min Rain = 0
KPD1 141908Z 18008KT 00/M03 A3021 RMK A01 T00011028  RH  080%=      5-min Rain = 0
KPD1 141909Z 18007G12KT 00/M03 A3021 RMK A01 T00021027  RH  081%=      5-min Rain = 0
KPD1 141910Z 20012KT 00/M03 A3021 RMK A01 T00041026  RH  081%=      5-min Rain = 0
KPD1 141911Z 19013KT 00/M03 A3021 RMK A01 T00041026  RH  080%=      5-min Rain = 0
KPD1 141912Z 20013KT 00/M03 A3021 RMK A01 T00041027  RH  080%=      5-min Rain = 0
KPD1 141913Z 19011G17KT 00/M03 A3021 RMK A01 T00031028  RH  080%=      5-min Rain = 0
KPD1 141914Z 20014KT 00/M03 A3021 RMK A01 T00031027  RH  080%=      5-min Rain = 0
KPD1 141915Z 20013KT 00/M03 A3021 RMK A01 T00021028  RH  080%=      5-min Rain = 0
KPD1 141916Z 20010G15KT 00/M03 A3021 RMK A01 T00021027  RH  081%=      5-min Rain = 0
KPD1 141917Z 19010KT 00/M03 A3021 RMK A01 T00021027  RH  081%=      5-min Rain = 0
KPD1 141918Z 18011KT 00/M03 A3021 RMK A01 T00031026  RH  081%=      5-min Rain = 0
KPD1 141919Z 19010KT 00/M03 A3021 RMK A01 T00031027  RH  081%=      5-min Rain = 0
KPD1 141920Z 20013KT 00/M03 A3021 RMK A01 T00031026  RH  081%=      5-min Rain = 0
KPD1 141921Z 20012G18KT 00/M03 A3021 RMK A01 T00031026  RH  081%=      5-min Rain = 0
KPD1 141922Z 19013KT 00/M03 A3021 RMK A01 T00031027  RH  080%=      5-min Rain = 0
KPD1 141923Z 19013KT 00/M03 A3021 RMK A01 T00031027  RH  081%=      5-min Rain = 0
KPD1 141924Z 19014KT 00/M03 A3021 RMK A01 T00031026  RH  081%=      5-min Rain = 0
KPD1 141925Z 19015KT 00/M03 A302 RMK A01 T00031026  RH  081%=      5-min Rain = 0
KPD1 141926Z 19014KT 00/M03 A302 RMK A01 T00021026  RH  081%=      5-min Rain = 0
KPD1 141927Z 20017KT 00/M03 A302 RMK A01 T00021026  RH  081%=      5-min Rain = 0
KPD1 141928Z 20017KT 00/M03 A302 RMK A01 T00021026  RH  081%=      5-min Rain = 0
KPD1 141929Z 19014G20KT 00/M03 A302 RMK A01 T00011026  RH  082%=      5-min Rain = 0
KPD1 141930Z 21013G18KT 00/M03 A302 RMK A01 T00011025  RH  082%=      5-min Rain = 0
KPD1 141931Z 21012G18KT 00/M02 A302 RMK A01 T00021024  RH  082%=      5-min Rain = 0
KPD1 141932Z 20010KT 00/M02 A302 RMK A01 T00021024  RH  082%=      5-min Rain = 0
KPD1 141933Z 18010KT 00/M02 A302 RMK A01 T00031023  RH  082%=      5-min Rain = 0
KPD1 141934Z 19014KT 00/M02 A302 RMK A01 T00041023  RH  082%=      5-min Rain = 0
KPD1 141935Z 19014KT 00/M02 A302 RMK A01 T00041024  RH  082%=      5-min Rain = 0
KPD1 141936Z 18011KT 00/M02 A302 RMK A01 T00031024  RH  082%=      5-min Rain = 0
KPD1 141937Z 18008G13KT 00/M02 A302 RMK A01 T00031024  RH  082%=      5-min Rain = 0
KPD1 141938Z 20010KT 00/M02 A302 RMK A01 T00041023  RH  082%=      5-min Rain = 0
KPD1 141939Z 19012KT 00/M02 A302 RMK A01 T00041023  RH  082%=      5-min Rain = 0
KPD1 141940Z 20014KT 00/M02 A302 RMK A01 T00041023  RH  082%=      5-min Rain = 0
KPD1 141941Z 20012KT 00/M02 A302 RMK A01 T00041023  RH  082%=      5-min Rain = 0
KPD1 141942Z 19009KT 00/M02 A302 RMK A01 T00041023  RH  082%=      5-min Rain = 0
KPD1 141943Z 18011KT 00/M02 A302 RMK A01 T00041022  RH  082%=      5-min Rain = 0
KPD1 141944Z 20010KT 00/M02 A3019 RMK A01 T00041023  RH  082%=      5-min Rain = 0
KPD1 141945Z 20010KT 00/M02 A3019 RMK A01 T00041023  RH  082%=      5-min Rain = 0
KPD1 141946Z 21011KT 01/M02 A3019 RMK A01 T00051022  RH  082%=      5-min Rain = 0
KPD1 141947Z 18009KT 01/M02 A3019 RMK A01 T00051022  RH  082%=      5-min Rain = 0
KPD1 141948Z 18012KT 01/M02 A3019 RMK A01 T00051023  RH  082%=      5-min Rain = 0
KPD1 141949Z 19010KT 01/M02 A3019 RMK A01 T00051023  RH  082%=      5-min Rain = 0
KPD1 141950Z 20014KT 01/M02 A3019 RMK A01 T00051022  RH  082%=      5-min Rain = 0
KPD1 141951Z 20012KT 01/M02 A3019 RMK A01 T00061022  RH  082%=      5-min Rain = 0
KPD1 141952Z 19009G15KT 01/M02 A3019 RMK A01 T00061022  RH  082%=      5-min Rain = 0
KPD1 141953Z 19009KT 01/M02 A3019 RMK A01 T00061022  RH  082%=      5-min Rain = 0
KPD1 141954Z 18015KT 01/M02 A3019 RMK A01 T00071021  RH  082%=      5-min Rain = 0
KPD1 141955Z 19014KT 01/M02 A3019 RMK A01 T00071022  RH  081%=      5-min Rain = 0
KPD1 141956Z 19014KT 01/M02 A3019 RMK A01 T00061022  RH  081%=      5-min Rain = 0
KPD1 141957Z 20011KT 01/M02 A3019 RMK A01 T00061023  RH  081%=      5-min Rain = 0
KPD1 141958Z 20010KT 01/M02 A3019 RMK A01 T00051023  RH  082%=      5-min Rain = 0
KPD1 141959Z 20008KT 01/M02 A3018 RMK A01 T00061021  RH  082%=      5-min Rain = 0
KPD1 142000Z 18009KT 01/M02 A3018 RMK A01 T00081020  RH  082%=      5-min Rain = 0
KPD1 142001Z 18007KT 01/M02 A3018 RMK A01 T00081020  RH  081%=      5-min Rain = 0
KPD1 142002Z 19010KT 01/M02 A3018 RMK A01 T00081020  RH  081%=      5-min Rain = 0
KPD1 142003Z 19013KT 01/M02 A3018 RMK A01 T00091020  RH  081%=      5-min Rain = 0
KPD1 142004Z 19012G17KT 01/M02 A3018 RMK A01 T00081021  RH  081%=      5-min Rain = 0
KPD1 142005Z 19015KT 01/M02 A3018 RMK A01 T00081021  RH  081%=      5-min Rain = 0
KPD1 142006Z 19014KT 01/M02 A3018 RMK A01 T00071022  RH  081%=      5-min Rain = 0
KPD1 142007Z 19012KT 01/M02 A3018 RMK A01 T00061022  RH  082%=      5-min Rain = 0
KPD1 142008Z 19008G14KT 01/M02 A3018 RMK A01 T00061021  RH  082%=      5-min Rain = 0
KPD1 142009Z 19008KT 01/M02 A3018 RMK A01 T00071020  RH  082%=      5-min Rain = 0
KPD1 142010Z 20011KT 01/M02 A3018 RMK A01 T00081020  RH  082%=      5-min Rain = 0
KPD1 142011Z 20010KT 01/M02 A3018 RMK A01 T00081019  RH  082%=      5-min Rain = 0
KPD1 142012Z 19008KT 01/M02 A3018 RMK A01 T00091019  RH  082%=      5-min Rain = 0
KPD1 142013Z 18011KT 01/M02 A3018 RMK A01 T00101018  RH  082%=      5-min Rain = 0
KPD1 142014Z 19011KT 01/M02 A3018 RMK A01 T00101019  RH  081%=      5-min Rain = 0
KPD1 142015Z 18010KT 01/M02 A3018 RMK A01 T00091019  RH  081%=      5-min Rain = 0
KPD1 142016Z 18010KT 01/M02 A3017 RMK A01 T00101019  RH  081%=      5-min Rain = 0
KPD1 142017Z 19012KT 01/M02 A3017 RMK A01 T00101019  RH  081%=      5-min Rain = 0
KPD1 142018Z 18015KT 01/M02 A3017 RMK A01 T00101019  RH  081%=      5-min Rain = 0
KPD1 142019Z 20013KT 01/M02 A3017 RMK A01 T00091020  RH  081%=      5-min Rain = 0
KPD1 142020Z 20013KT 01/M02 A3017 RMK A01 T00091019  RH  081%=      5-min Rain = 0
KPD1 142021Z 21014KT 01/M02 A3017 RMK A01 T00091019  RH  082%=      5-min Rain = 0
KPD1 142022Z 20014KT 01/M02 A3017 RMK A01 T00091019  RH  082%=      5-min Rain = 0
KPD1 142023Z 21012G17KT 01/M02 A3017 RMK A01 T00091019  RH  082%=      5-min Rain = 0
KPD1 142024Z 19012KT 01/M02 A3017 RMK A01 T00091019  RH  082%=      5-min Rain = 0
KPD1 142025Z 19013G18KT 01/M02 A3017 RMK A01 T00091019  RH  082%=      5-min Rain = 0
KPD1 142026Z 19013KT 01/M02 A3017 RMK A01 T00091018  RH  082%=      5-min Rain = 0
KPD1 142027Z 20013KT 01/M02 A3017 RMK A01 T00091019  RH  082%=      5-min Rain = 0
KPD1 142028Z 20013KT 01/M02 A3017 RMK A01 T00091018  RH  082%=      5-min Rain = 0
KPD1 142029Z 18013KT 01/M02 A3017 RMK A01 T00091018  RH  082%=      5-min Rain = 0
KPD1 142030Z 19013G18KT 01/M02 A3017 RMK A01 T00091018  RH  082%=      5-min Rain = 0
KPD1 142031Z 18015KT 01/M02 A3017 RMK A01 T00091019  RH  082%=      5-min Rain = 0
KPD1 142032Z 19013KT 01/M02 A3017 RMK A01 T00081019  RH  082%=      5-min Rain = 0
KPD1 142033Z 18012G17KT 01/M02 A3017 RMK A01 T00081020  RH  082%=      5-min Rain = 0
KPD1 142034Z 18013KT 01/M02 A3017 RMK A01 T00081019  RH  082%=      5-min Rain = 0
KPD1 142035Z 19012G17KT 01/M02 A3017 RMK A01 T00081019  RH  082%=      5-min Rain = 0
KPD1 142036Z 18014KT 01/M02 A3017 RMK A01 T00081019  RH  082%=      5-min Rain = 0
KPD1 142037Z 19013KT 01/M02 A3017 RMK A01 T00081019  RH  082%=      5-min Rain = 0
KPD1 142038Z 19013KT 01/M02 A3017 RMK A01 T00081019  RH  082%=      5-min Rain = 0
KPD1 142039Z 20012KT 01/M02 A3016 RMK A01 T00081019  RH  082%=      5-min Rain = 0
KPD1 142040Z 20013KT 01/M02 A3016 RMK A01 T00081019  RH  082%=      5-min Rain = 0
KPD1 142041Z 19011KT 01/M02 A3016 RMK A01 T00091018  RH  082%=      5-min Rain = 0
KPD1 142042Z 19014KT 01/M02 A3016 RMK A01 T00091018  RH  082%=      5-min Rain = 0
KPD1 142043Z 20013KT 01/M02 A3016 RMK A01 T00091018  RH  082%=      5-min Rain = 0
KPD1 142044Z 19012KT 01/M02 A3016 RMK A01 T00091019  RH  082%=      5-min Rain = 0
KPD1 142045Z 18016KT 01/M02 A3016 RMK A01 T00081019  RH  082%=      5-min Rain = 0
KPD1 142046Z 20015KT 01/M02 A3016 RMK A01 T00071019  RH  083%=      5-min Rain = 0
KPD1 142047Z 19016KT 01/M02 A3016 RMK A01 T00071019  RH  083%=      5-min Rain = 0
KPD1 142048Z 19011KT 01/M02 A3016 RMK A01 T00061019  RH  083%=      5-min Rain = 0
KPD1 142049Z 19011G16KT 01/M02 A3016 RMK A01 T00071018  RH  084%=      5-min Rain = 0
KPD1 142050Z 20014G19KT 01/M02 A3016 RMK A01 T00081017  RH  084%=      5-min Rain = 0
KPD1 142051Z 19012KT 01/M02 A3016 RMK A01 T00081017  RH  083%=      5-min Rain = 0
KPD1 142052Z 19011G16KT 01/M02 A3016 RMK A01 T00091016  RH  083%=      5-min Rain = 0
KPD1 142053Z 20014KT 01/M02 A3016 RMK A01 T00101016  RH  083%=      5-min Rain = 0
KPD1 142054Z 19011KT 01/M02 A3015 RMK A01 T00111016  RH  083%=      5-min Rain = 0
KPD1 142055Z 19010KT 01/M02 A3015 RMK A01 T00111016  RH  082%=      5-min Rain = 0
KPD1 142056Z 19013KT 01/M02 A3015 RMK A01 T00111016  RH  082%=      5-min Rain = 0
KPD1 142057Z 19014G20KT 01/M02 A3015 RMK A01 T00111016  RH  082%=      5-min Rain = 0
KPD1 142058Z 20016KT 01/M02 A3015 RMK A01 T00111016  RH  082%=      5-min Rain = 0
KPD1 142059Z 20015KT 01/M02 A3015 RMK A01 T00111016  RH  082%=      5-min Rain = 0
KPD1 142100Z 19012G17KT 01/M02 A3015 RMK A01 T00111016  RH  082%=      5-min Rain = 0
KPD1 142101Z 19010G17KT 01/M02 A3015 RMK A01 T00101016  RH  083%=      5-min Rain = 0
KPD1 142102Z 19013KT 01/M02 A3015 RMK A01 T00111015  RH  083%=      5-min Rain = 0
KPD1 142103Z 19015KT 01/M02 A3015 RMK A01 T00111016  RH  082%=      5-min Rain = 0
KPD1 142104Z 20011KT 01/M02 A3015 RMK A01 T00111016  RH  082%=      5-min Rain = 0
KPD1 142105Z 19012KT 01/M02 A3015 RMK A01 T00111015  RH  083%=      5-min Rain = 0
KPD1 142106Z 19010KT 01/M02 A3015 RMK A01 T00111015  RH  083%=      5-min Rain = 0
KPD1 142107Z 19011KT 01/M02 A3014 RMK A01 T00111015  RH  083%=      5-min Rain = 0
KPD1 142108Z 18012KT 01/M02 A3014 RMK A01 T00111015  RH  083%=      5-min Rain = 0
KPD1 142109Z 17013G18KT 01/M02 A3014 RMK A01 T00111015  RH  083%=      5-min Rain = 0
KPD1 142110Z 19015KT 01/M02 A3014 RMK A01 T00111016  RH  083%=      5-min Rain = 0
KPD1 142111Z 19012KT 01/M02 A3014 RMK A01 T00101016  RH  083%=      5-min Rain = 0
KPD1 142112Z 18011KT 01/M02 A3014 RMK A01 T00101016  RH  083%=      5-min Rain = 0
KPD1 142113Z 18011G17KT 01/M02 A3014 RMK A01 T00101015  RH  083%=      5-min Rain = 0
KPD1 142114Z 18011G19KT 01/M02 A3014 RMK A01 T00111015  RH  083%=      5-min Rain = 0
KPD1 142115Z 18011G16KT 01/M01 A3014 RMK A01 T00111014  RH  083%=      5-min Rain = 0
KPD1 142116Z 18013KT 01/M02 A3014 RMK A01 T00121015  RH  083%=      5-min Rain = 0
KPD1 142117Z 19014KT 01/M02 A3014 RMK A01 T00111015  RH  083%=      5-min Rain = 0
KPD1 142118Z 18015KT 01/M02 A3014 RMK A01 T00111015  RH  083%=      5-min Rain = 0
KPD1 142119Z 19013KT 01/M02 A3014 RMK A01 T00101016  RH  083%=      5-min Rain = 0
KPD1 142120Z 19013KT 01/M02 A3014 RMK A01 T00101016  RH  083%=      5-min Rain = 0
KPD1 142121Z 19012KT 01/M02 A3014 RMK A01 T00101015  RH  083%=      5-min Rain = 0
KPD1 142122Z 19012G18KT 01/M02 A3014 RMK A01 T00101015  RH  083%=      5-min Rain = 0
KPD1 142123Z 18011KT 01/M02 A3014 RMK A01 T00101015  RH  083%=      5-min Rain = 0
KPD1 142124Z 18009KT 01/M01 A3014 RMK A01 T00111014  RH  083%=      5-min Rain = 0
KPD1 142125Z 19009KT 01/M01 A3014 RMK A01 T00111014  RH  083%=      5-min Rain = 0
KPD1 142126Z 18010G17KT 01/M01 A3014 RMK A01 T00131013  RH  083%=      5-min Rain = 0
KPD1 142127Z 18013KT 01/M01 A3014 RMK A01 T00131014  RH  083%=      5-min Rain = 0
KPD1 142128Z 19016G21KT 01/M01 A3013 RMK A01 T00131014  RH  082%=      5-min Rain = 0
KPD1 142129Z 19016KT 01/M01 A3013 RMK A01 T00131014  RH  082%=      5-min Rain = 0
KPD1 142130Z 19016G22KT 01/M01 A3013 RMK A01 T00131014  RH  082%=      5-min Rain = 0
KPD1 142131Z 19014G19KT 01/M01 A3013 RMK A01 T00131014  RH  082%=      5-min Rain = 0
KPD1 142132Z 19013KT 01/M01 A3013 RMK A01 T00131014  RH  082%=      5-min Rain = 0
KPD1 142133Z 19014G19KT 01/M01 A3013 RMK A01 T00141014  RH  082%=      5-min Rain = 0
KPD1 142134Z 19011KT 01/M01 A3013 RMK A01 T00141013  RH  082%=      5-min Rain = 0
KPD1 142135Z 19012KT 02/M01 A3013 RMK A01 T00151013  RH  082%=      5-min Rain = 0
KPD1 142136Z 19012G18KT 02/M01 A3013 RMK A01 T00151013  RH  082%=      5-min Rain = 0
KPD1 142137Z 19012G17KT 02/M01 A3013 RMK A01 T00151013  RH  082%=      5-min Rain = 0
KPD1 142138Z 18010KT 02/M01 A3013 RMK A01 T00151013  RH  082%=      5-min Rain = 0
KPD1 142139Z 18011KT 02/M01 A3013 RMK A01 T00161012  RH  082%=      5-min Rain = 0
KPD1 142140Z 16014KT 02/M01 A3012 RMK A01 T00161012  RH  082%=      5-min Rain = 0
KPD1 142141Z 18012KT 02/M01 A3012 RMK A01 T00161012  RH  082%=      5-min Rain = 0
KPD1 142142Z 18012KT 02/M01 A3012 RMK A01 T00161012  RH  082%=      5-min Rain = 0
KPD1 142143Z 19014KT 02/M01 A3012 RMK A01 T00161012  RH  082%=      5-min Rain = 0
KPD1 142144Z 19015KT 02/M01 A3012 RMK A01 T00161012  RH  082%=      5-min Rain = 0
KPD1 142145Z 19014G20KT 02/M01 A3012 RMK A01 T00161013  RH  081%=      5-min Rain = 0
KPD1 142146Z 19014G21KT 02/M01 A3012 RMK A01 T00151013  RH  082%=      5-min Rain = 0
KPD1 142147Z 18012KT 02/M01 A3012 RMK A01 T00151013  RH  082%=      5-min Rain = 0
KPD1 142148Z 18015G21KT 02/M01 A3012 RMK A01 T00151012  RH  082%=      5-min Rain = 0
KPD1 142149Z 19014KT 02/M01 A3012 RMK A01 T00151012  RH  082%=      5-min Rain = 0
KPD1 142150Z 19010KT 02/M01 A3012 RMK A01 T00161012  RH  082%=      5-min Rain = 0
KPD1 142151Z 19010KT 02/M01 A3012 RMK A01 T00161011  RH  082%=      5-min Rain = 0
KPD1 142152Z 19014KT 02/M01 A3012 RMK A01 T00171011  RH  082%=      5-min Rain = 0
KPD1 142153Z 19011G17KT 02/M01 A3012 RMK A01 T00171011  RH  081%=      5-min Rain = 0
KPD1 142154Z 19012G19KT 02/M01 A3012 RMK A01 T00181011  RH  081%=      5-min Rain = 0
KPD1 142155Z 20017KT 02/M01 A3012 RMK A01 T00181012  RH  081%=      5-min Rain = 0
KPD1 142156Z 19013G18KT 02/M01 A3012 RMK A01 T00171012  RH  081%=      5-min Rain = 0
KPD1 142157Z 19017KT 02/M01 A3012 RMK A01 T00171012  RH  081%=      5-min Rain = 0
KPD1 142158Z 18013G19KT 02/M01 A3012 RMK A01 T00171013  RH  081%=      5-min Rain = 0
KPD1 142159Z 19016KT 02/M01 A3012 RMK A01 T00171012  RH  081%=      5-min Rain = 0
KPD1 142200Z 19015KT 02/M01 A3012 RMK A01 T00171012  RH  081%=      5-min Rain = 0
KPD1 142201Z 19013KT 02/M01 A3012 RMK A01 T00171012  RH  081%=      5-min Rain = 0
KPD1 142202Z 20015G23KT 02/M01 A3012 RMK A01 T00171012  RH  081%=      5-min Rain = 0
KPD1 142203Z 20016KT 02/M01 A3012 RMK A01 T00171012  RH  081%=      5-min Rain = 0
KPD1 142204Z 20015KT 02/M01 A3012 RMK A01 T00171012  RH  081%=      5-min Rain = 0
KPD1 142205Z 19013G21KT 02/M01 A3012 RMK A01 T00171012  RH  081%=      5-min Rain = 0
KPD1 142206Z 18014KT 02/M01 A3012 RMK A01 T00171012  RH  081%=      5-min Rain = 0
KPD1 142207Z 19014G19KT 02/M01 A3012 RMK A01 T00161013  RH  081%=      5-min Rain = 0
KPD1 142208Z 20013G20KT 02/M01 A3012 RMK A01 T00151013  RH  082%=      5-min Rain = 0
KPD1 142209Z 18014KT 02/M01 A3012 RMK A01 T00151013  RH  082%=      5-min Rain = 0
KPD1 142210Z 18014KT 02/M01 A3012 RMK A01 T00151012  RH  082%=      5-min Rain = 0
KPD1 142211Z 19012KT 02/M01 A3012 RMK A01 T00161012  RH  082%=      5-min Rain = 0
KPD1 142212Z 19010KT 02/M01 A3012 RMK A01 T00161011  RH  082%=      5-min Rain = 0
KPD1 142213Z 19013KT 02/M01 A3012 RMK A01 T00171011  RH  082%=      5-min Rain = 0
KPD1 142214Z 19013G18KT 02/M01 A3012 RMK A01 T00171011  RH  082%=      5-min Rain = 0
KPD1 142215Z 19016KT 02/M01 A3012 RMK A01 T00171011  RH  082%=      5-min Rain = 0
KPD1 142216Z 20016KT 02/M01 A3012 RMK A01 T00171011  RH  082%=      5-min Rain = 0
KPD1 142217Z 19014KT 02/M01 A3012 RMK A01 T00171011  RH  082%=      5-min Rain = 0
KPD1 142218Z 18013G18KT 02/M01 A3012 RMK A01 T00171011  RH  082%=      5-min Rain = 0
KPD1 142219Z 18011G16KT 02/M01 A3012 RMK A01 T00171011  RH  082%=      5-min Rain = 0
KPD1 142220Z 18014G19KT 02/M01 A3012 RMK A01 T00171011  RH  082%=      5-min Rain = 0
KPD1 142221Z 19015G20KT 02/M01 A3012 RMK A01 T00171011  RH  082%=      5-min Rain = 0
KPD1 142222Z 20015KT 02/M01 A3012 RMK A01 T00171011  RH  082%=      5-min Rain = 0
KPD1 142223Z 19014KT 02/M01 A3012 RMK A01 T00171011  RH  082%=      5-min Rain = 0
KPD1 142224Z 19010KT 02/M01 A3012 RMK A01 T00171011  RH  082%=      5-min Rain = 0
KPD1 142225Z 19013KT 02/M01 A3012 RMK A01 T00171011  RH  082%=      5-min Rain = 0
KPD1 142226Z 19011KT 02/M01 A3012 RMK A01 T00171011  RH  082%=      5-min Rain = 0
KPD1 142227Z 20011G17KT 02/M01 A3012 RMK A01 T00181010  RH  082%=      5-min Rain = 0
KPD1 142228Z 19012G18KT 02/M01 A3012 RMK A01 T00181010  RH  082%=      5-min Rain = 0
KPD1 142229Z 20014KT 02/M01 A3012 RMK A01 T00181010  RH  081%=      5-min Rain = 0
KPD1 142230Z 20017KT 02/M01 A3012 RMK A01 T00181011  RH  081%=      5-min Rain = 0
KPD1 142231Z 19016G21KT 02/M01 A3012 RMK A01 T00181011  RH  081%=      5-min Rain = 0
KPD1 142232Z 20016KT 02/M01 A3012 RMK A01 T00181012  RH  081%=      5-min Rain = 0
KPD1 142233Z 20018KT 02/M01 A3011 RMK A01 T00171011  RH  081%=      5-min Rain = 0
KPD1 142234Z 20017KT 02/M01 A3011 RMK A01 T00181011  RH  081%=      5-min Rain = 0
KPD1 142235Z 20016KT 02/M01 A3011 RMK A01 T00171011  RH  081%=      5-min Rain = 0
KPD1 142236Z 20016G21KT 02/M01 A3011 RMK A01 T00171011  RH  081%=      5-min Rain = 0
KPD1 142237Z 19016KT 02/M01 A3011 RMK A01 T00171011  RH  081%=      5-min Rain = 0
KPD1 142238Z 19015KT 02/M01 A3011 RMK A01 T00171011  RH  082%=      5-min Rain = 0
KPD1 142239Z 20015KT 02/M01 A3011 RMK A01 T00171010  RH  082%=      5-min Rain = 0
KPD1 142240Z 20015KT 02/M01 A3011 RMK A01 T00171011  RH  082%=      5-min Rain = 0
KPD1 142241Z 19013KT 02/M01 A3011 RMK A01 T00181011  RH  082%=      5-min Rain = 0
KPD1 142242Z 19014G19KT 02/M01 A3012 RMK A01 T00181010  RH  082%=      5-min Rain = 0
KPD1 142243Z 19013KT 02/M01 A3012 RMK A01 T00181010  RH  082%=      5-min Rain = 0
KPD1 142244Z 19012KT 02/M01 A3012 RMK A01 T00181010  RH  082%=      5-min Rain = 0
KPD1 142245Z 19010KT 02/M01 A3012 RMK A01 T00181010  RH  082%=      5-min Rain = 0
KPD1 142246Z 17012KT 02/M01 A3012 RMK A01 T00181010  RH  082%=      5-min Rain = 0
KPD1 142247Z 17013KT 02/M01 A3012 RMK A01 T00181010  RH  082%=      5-min Rain = 0
KPD1 142248Z 18009KT 02/M01 A3012 RMK A01 T00181010  RH  082%=      5-min Rain = 0
KPD1 142249Z 17011KT 02/M01 A3012 RMK A01 T00171010  RH  082%=      5-min Rain = 0
KPD1 142250Z 18010KT 02/M01 A3012 RMK A01 T00171010  RH  082%=      5-min Rain = 0
KPD1 142251Z 17011KT 02/M01 A3012 RMK A01 T00171010  RH  082%=      5-min Rain = 0
KPD1 142252Z 18014G19KT 02/M01 A3011 RMK A01 T00171010  RH  082%=      5-min Rain = 0
KPD1 142253Z 20016KT 02/M01 A3011 RMK A01 T00171010  RH  082%=      5-min Rain = 0
KPD1 142254Z 18012KT 02/M01 A3011 RMK A01 T00161010  RH  083%=      5-min Rain = 0
KPD1 142255Z 19011KT 02/M01 A3012 RMK A01 T00171009  RH  083%=      5-min Rain = 0
KPD1 142256Z 19014G19KT 02/M01 A3011 RMK A01 T00171010  RH  083%=      5-min Rain = 0
KPD1 142257Z 17012G17KT 02/M01 A3011 RMK A01 T00171010  RH  083%=      5-min Rain = 0
KPD1 142258Z 18013KT 02/M01 A3011 RMK A01 T00171010  RH  083%=      5-min Rain = 0
KPD1 142259Z 18013G20KT 02/M01 A3011 RMK A01 T00171010  RH  083%=      5-min Rain = 0
KPD1 142300Z 18015G20KT 02/M01 A3011 RMK A01 T00161010  RH  083%=      5-min Rain = 0
KPD1 142301Z 18016G21KT 02/M01 A3011 RMK A01 T00161010  RH  083%=      5-min Rain = 0
KPD1 142302Z 17012KT 02/M01 A3011 RMK A01 T00161010  RH  083%=      5-min Rain = 0
KPD1 142303Z 18014KT 02/M01 A3011 RMK A01 T00161010  RH  083%=      5-min Rain = 0
KPD1 142304Z 18013KT 02/M01 A3011 RMK A01 T00161010  RH  083%=      5-min Rain = 0
KPD1 142305Z 18014KT 02/M01 A3011 RMK A01 T00161009  RH  083%=      5-min Rain = 0
KPD1 142306Z 19014G21KT 02/M01 A3011 RMK A01 T00161009  RH  083%=      5-min Rain = 0
KPD1 142307Z 18014G20KT 02/M01 A3011 RMK A01 T00161009  RH  083%=      5-min Rain = 0
KPD1 142308Z 19016G22KT 02/M01 A3011 RMK A01 T00161009  RH  083%=      5-min Rain = 0
KPD1 142309Z 19019KT 02/M01 A3011 RMK A01 T00161009  RH  083%=      5-min Rain = 0
KPD1 142310Z 19020KT 02/M01 A3011 RMK A01 T00161009  RH  083%=      5-min Rain = 0
KPD1 142311Z 19014G22KT 02/M01 A3011 RMK A01 T00161009  RH  083%=      5-min Rain = 0
KPD1 142312Z 20018KT 02/M01 A3011 RMK A01 T00161009  RH  084%=      5-min Rain = 0
KPD1 142313Z 20017G24KT 02/M01 A3011 RMK A01 T00161009  RH  084%=      5-min Rain = 0
KPD1 142314Z 20016KT 02/M01 A3011 RMK A01 T00161009  RH  084%=      5-min Rain = 0
KPD1 142315Z 19016KT 02/M01 A3011 RMK A01 T00161009  RH  084%=      5-min Rain = 0
KPD1 142316Z 19014KT 02/M01 A3011 RMK A01 T00161009  RH  084%=      5-min Rain = 0
KPD1 142317Z 20015KT 02/M01 A3011 RMK A01 T00161009  RH  084%=      5-min Rain = 0
KPD1 142318Z 19015KT 02/M01 A3011 RMK A01 T00161009  RH  084%=      5-min Rain = 0
KPD1 142319Z 19011KT 02/M01 A3011 RMK A01 T00151009  RH  084%=      5-min Rain = 0
KPD1 142320Z 18015G22KT 02/M01 A3011 RMK A01 T00161009  RH  084%=      5-min Rain = 0
KPD1 142321Z 18012KT 02/M01 A3011 RMK A01 T00151009  RH  084%=      5-min Rain = 0
KPD1 142322Z 18015KT 02/M01 A3011 RMK A01 T00161009  RH  084%=      5-min Rain = 0
KPD1 142323Z 17011KT 02/M01 A3011 RMK A01 T00151009  RH  084%=      5-min Rain = 0
KPD1 142324Z 18013KT 02/M01 A3011 RMK A01 T00151009  RH  084%=      5-min Rain = 0
KPD1 142325Z 18013KT 02/M01 A3011 RMK A01 T00151009  RH  084%=      5-min Rain = 0
KPD1 142326Z 18013KT 02/M01 A3011 RMK A01 T00151009  RH  084%=      5-min Rain = 0
KPD1 142327Z 18009KT 01/M01 A3011 RMK A01 T00141009  RH  085%=      5-min Rain = 0
KPD1 142328Z 17009KT 02/M01 A3011 RMK A01 T00151008  RH  085%=      5-min Rain = 0
KPD1 142329Z 19011KT 02/M01 A3011 RMK A01 T00151008  RH  085%=      5-min Rain = 0
KPD1 142330Z 18009KT 02/M01 A3011 RMK A01 T00151008  RH  085%=      5-min Rain = 0
KPD1 142331Z 18014G19KT 02/M01 A3011 RMK A01 T00151008  RH  085%=      5-min Rain = 0
KPD1 142332Z 19016G22KT 02/M01 A3011 RMK A01 T00151008  RH  085%=      5-min Rain = 0
KPD1 142333Z 18015G20KT 02/M01 A3011 RMK A01 T00151009  RH  085%=      5-min Rain = 0
KPD1 142334Z 19018KT 01/M01 A3011 RMK A01 T00141009  RH  085%=      5-min Rain = 0
KPD1 142335Z 19017KT 01/M01 A3011 RMK A01 T00141009  RH  085%=      5-min Rain = 0
KPD1 142336Z 18018KT 01/M01 A3011 RMK A01 T00141009  RH  085%=      5-min Rain = 0
KPD1 142337Z 17013KT 01/M01 A3011 RMK A01 T00141009  RH  085%=      5-min Rain = 0
KPD1 142338Z 18014G20KT 01/M01 A3011 RMK A01 T00141008  RH  085%=      5-min Rain = 0
KPD1 142339Z 19014G20KT 01/M01 A3011 RMK A01 T00141008  RH  085%=      5-min Rain = 0
KPD1 142340Z 18013G22KT 01/M01 A3011 RMK A01 T00141008  RH  085%=      5-min Rain = 0
KPD1 142341Z 19018KT 01/M01 A3011 RMK A01 T00141008  RH  085%=      5-min Rain = 0
KPD1 142342Z 19018KT 01/M01 A3011 RMK A01 T00141008  RH  085%=      5-min Rain = 0
KPD1 142343Z 18016G21KT 01/M01 A3011 RMK A01 T00141008  RH  085%=      5-min Rain = 0
KPD1 142344Z 19015G20KT 01/M01 A3011 RMK A01 T00141008  RH  085%=      5-min Rain = 0
KPD1 142345Z 19012G19KT 01/M01 A3011 RMK A01 T00141008  RH  085%=      5-min Rain = 0
KPD1 142346Z 20014G19KT 01/M01 A3011 RMK A01 T00141008  RH  085%=      5-min Rain = 0
KPD1 142347Z 19011KT 01/M01 A3011 RMK A01 T00141008  RH  085%=      5-min Rain = 0
KPD1 142348Z 18014KT 01/M01 A3011 RMK A01 T00141008  RH  085%=      5-min Rain = 0
KPD1 142349Z 18013KT 01/M01 A3011 RMK A01 T00141008  RH  085%=      5-min Rain = 0
KPD1 142350Z 19012KT 01/M01 A3011 RMK A01 T00141008  RH  085%=      5-min Rain = 0
KPD1 142351Z 19013KT 01/M01 A3011 RMK A01 T00141008  RH  085%=      5-min Rain = 0
KPD1 142352Z 18010KT 01/M01 A3011 RMK A01 T00141008  RH  085%=      5-min Rain = 0
KPD1 142353Z 18008KT 01/M01 A3011 RMK A01 T00141008  RH  086%=      5-min Rain = 0
KPD1 142354Z 19010KT 01/M01 A3011 RMK A01 T00141008  RH  086%=      5-min Rain = 0
KPD1 142355Z 19013KT 01/M01 A3011 RMK A01 T00141008  RH  086%=      5-min Rain = 0
KPD1 142356Z 19016KT 01/M01 A3011 RMK A01 T00141008  RH  086%=      5-min Rain = 0
KPD1 142357Z 19014KT 01/M01 A3011 RMK A01 T00131008  RH  086%=      5-min Rain = 0
KPD1 142358Z 20011G16KT 01/M01 A3011 RMK A01 T00131008  RH  086%=      5-min Rain = 0
KPD1 142359Z 19011KT 01/M01 A3011 RMK A01 T00131008  RH  086%=      5-min Rain = 0
KPD1 150000Z 19013KT 01/M01 A301 RMK A01 T00131008  RH  086%=      5-min Rain = 0
KPD1 150001Z 18016KT 01/M01 A301 RMK A01 T00131008  RH  086%=      5-min Rain = 0
KPD1 150002Z 19012KT 01/M01 A3011 RMK A01 T00131008  RH  086%=      5-min Rain = 0
KPD1 150003Z 19012G17KT 01/M01 A3011 RMK A01 T00131008  RH  086%=      5-min Rain = 0
KPD1 150004Z 19012KT 01/M01 A3011 RMK A01 T00131007  RH  086%=      5-min Rain = 0
KPD1 150005Z 19014KT 01/M01 A3011 RMK A01 T00131007  RH  086%=      5-min Rain = 0
KPD1 150006Z 19013KT 01/M01 A3011 RMK A01 T00131007  RH  087%=      5-min Rain = 0
KPD1 150007Z 18010KT 01/M01 A3011 RMK A01 T00131007  RH  087%=      5-min Rain = 0
KPD1 150008Z 19012KT 01/M01 A3011 RMK A01 T00131007  RH  087%=      5-min Rain = 0
KPD1 150009Z 17012G17KT 01/M01 A3011 RMK A01 T00131007  RH  087%=      5-min Rain = 0
KPD1 150010Z 18017G22KT 01/M01 A301 RMK A01 T00121008  RH  087%=      5-min Rain = 0
KPD1 150011Z 19013KT 01/M01 A3011 RMK A01 T00111008  RH  087%=      5-min Rain = 0
KPD1 150012Z 17011G18KT 01/M01 A3011 RMK A01 T00111008  RH  087%=      5-min Rain = 0
KPD1 150013Z 18016G21KT 01/M01 A301 RMK A01 T00111008  RH  087%=      5-min Rain = 0
KPD1 150014Z 20012G17KT 01/M01 A301 RMK A01 T00101008  RH  088%=      5-min Rain = 0
KPD1 150015Z 18013G18KT 01/M01 A3011 RMK A01 T00101008  RH  088%=      5-min Rain = 0
KPD1 150016Z 19016G21KT 01/M01 A3011 RMK A01 T00101008  RH  088%=      5-min Rain = 0
KPD1 150017Z 18015G22KT 01/M01 A3011 RMK A01 T00101008  RH  088%=      5-min Rain = 0
KPD1 150018Z 18019G24KT 01/M01 A3011 RMK A01 T00091008  RH  088%=      5-min Rain = 0
KPD1 150019Z 19017KT 01/M01 A301 RMK A01 T00091008  RH  088%=      5-min Rain = 0
KPD1 150020Z 18016KT 01/M01 A301 RMK A01 T00091008  RH  088%=      5-min Rain = 0
KPD1 150021Z 18015G20KT 01/M01 A301 RMK A01 T00091008  RH  089%=      5-min Rain = 0
KPD1 150022Z 17014KT 01/M01 A301 RMK A01 T00091008  RH  089%=      5-min Rain = 0
KPD1 150023Z 18012G17KT 01/M01 A3011 RMK A01 T00091008  RH  089%=      5-min Rain = 0
KPD1 150024Z 20014G19KT 01/M01 A301 RMK A01 T00091008  RH  089%=      5-min Rain = 0
KPD1 150025Z 19015G22KT 01/M01 A301 RMK A01 T00091008  RH  089%=      5-min Rain = 0
KPD1 150026Z 18017KT 01/M01 A301 RMK A01 T00091008  RH  089%=      5-min Rain = 0
KPD1 150027Z 19013KT 01/M01 A301 RMK A01 T00091008  RH  089%=      5-min Rain = 0
KPD1 150028Z 18017KT 01/M01 A3011 RMK A01 T00091008  RH  089%=      5-min Rain = 0
KPD1 150029Z 18017KT 01/M01 A3011 RMK A01 T00091008  RH  088%=      5-min Rain = 0
KPD1 150030Z 18013KT 01/M01 A301 RMK A01 T00091008  RH  088%=      5-min Rain = 0
KPD1 150031Z 19018KT 01/M01 A3011 RMK A01 T00091008  RH  088%=      5-min Rain = 0
KPD1 150032Z 18018KT 01/M01 A3011 RMK A01 T00081009  RH  088%=      5-min Rain = 0
KPD1 150033Z 19019KT 01/M01 A3011 RMK A01 T00081009  RH  089%=      5-min Rain = 0
KPD1 150034Z 18014G19KT 01/M01 A3011 RMK A01 T00081009  RH  089%=      5-min Rain = 0
KPD1 150035Z 19012G19KT 01/M01 A3011 RMK A01 T00081008  RH  089%=      5-min Rain = 0
KPD1 150036Z 19015G23KT 01/M01 A301 RMK A01 T00081008  RH  089%=      5-min Rain = 0
KPD1 150037Z 18015KT 01/M01 A3011 RMK A01 T00081008  RH  089%=      5-min Rain = 0
KPD1 150038Z 17017KT 01/M01 A301 RMK A01 T00081008  RH  089%=      5-min Rain = 0
KPD1 150039Z 18012KT 01/M01 A301 RMK A01 T00081008  RH  089%=      5-min Rain = 0
KPD1 150040Z 18014G24KT 01/M01 A301 RMK A01 T00081008  RH  089%=      5-min Rain = 0
KPD1 150041Z 18017KT 01/M01 A301 RMK A01 T00081008  RH  089%=      5-min Rain = 0
KPD1 150042Z 18015KT 01/M01 A301 RMK A01 T00081008  RH  089%=      5-min Rain = 0
KPD1 150043Z 17015KT 01/M01 A301 RMK A01 T00081008  RH  089%=      5-min Rain = 0
KPD1 150044Z 18016G21KT 01/M01 A301 RMK A01 T00081009  RH  089%=      5-min Rain = 0
KPD1 150045Z 18014G19KT 01/M01 A301 RMK A01 T00081008  RH  089%=      5-min Rain = 0
KPD1 150046Z 19015KT 01/M01 A301 RMK A01 T00081008  RH  089%=      5-min Rain = 0
KPD1 150047Z 19013G18KT 01/M01 A301 RMK A01 T00081008  RH  089%=      5-min Rain = 0
KPD1 150048Z 18013G21KT 01/M01 A301 RMK A01 T00081009  RH  089%=      5-min Rain = 0
KPD1 150049Z 17013G18KT 01/M01 A301 RMK A01 T00081009  RH  089%=      5-min Rain = 0
KPD1 150050Z 17020KT 01/M01 A301 RMK A01 T00081009  RH  089%=      5-min Rain = 0
KPD1 150051Z 18019KT 01/M01 A301 RMK A01 T00071009  RH  089%=      5-min Rain = 0
KPD1 150052Z 18014G19KT 01/M01 A301 RMK A01 T00071009  RH  089%=      5-min Rain = 0
KPD1 150053Z 18019KT 01/M01 A301 RMK A01 T00071009  RH  089%=      5-min Rain = 0
KPD1 150054Z 17018G23KT 01/M01 A3011 RMK A01 T00071009  RH  089%=      5-min Rain = 0
KPD1 150055Z 18012KT 01/M01 A3011 RMK A01 T00071009  RH  089%=      5-min Rain = 0
KPD1 150056Z 18010KT 01/M01 A301 RMK A01 T00071009  RH  089%=      5-min Rain = 0
KPD1 150057Z 17009G16KT 01/M01 A3011 RMK A01 T00071009  RH  089%=      5-min Rain = 0
KPD1 150058Z 17014G19KT 01/M01 A3011 RMK A01 T00071009  RH  089%=      5-min Rain = 0
KPD1 150059Z 17012KT 01/M01 A3011 RMK A01 T00071009  RH  089%=      5-min Rain = 0
KPD1 150100Z 17011KT 01/M01 A3011 RMK A01 T00071008  RH  089%=      5-min Rain = 0
KPD1 150101Z 17013KT 01/M01 A3011 RMK A01 T00071009  RH  089%=      5-min Rain = 0
KPD1 150102Z 18010KT 01/M01 A3011 RMK A01 T00071008  RH  090%=      5-min Rain = 0
KPD1 150103Z 18010KT 01/M01 A3011 RMK A01 T00071008  RH  090%=      5-min Rain = 0
KPD1 150104Z 18010KT 01/M01 A3011 RMK A01 T00071008  RH  090%=      5-min Rain = 0
KPD1 150105Z 17011G16KT 01/M01 A3011 RMK A01 T00071008  RH  090%=      5-min Rain = 0
KPD1 150106Z 17016G21KT 01/M01 A301 RMK A01 T00071008  RH  089%=      5-min Rain = 0
KPD1 150107Z 17017KT 01/M01 A3011 RMK A01 T00071009  RH  089%=      5-min Rain = 0
KPD1 150108Z 17013G18KT 01/M01 A3011 RMK A01 T00071009  RH  089%=      5-min Rain = 0
KPD1 150109Z 17015KT 01/M01 A3011 RMK A01 T00071009  RH  089%=      5-min Rain = 0
KPD1 150110Z 18014KT 01/M01 A3011 RMK A01 T00071009  RH  089%=      5-min Rain = 0
KPD1 150111Z 17012KT 01/M01 A3011 RMK A01 T00071009  RH  089%=      5-min Rain = 0
KPD1 150112Z 18012KT 01/M01 A3011 RMK A01 T00071009  RH  089%=      5-min Rain = 0
KPD1 150113Z 18012G17KT 01/M01 A3011 RMK A01 T00071009  RH  089%=      5-min Rain = 0
KPD1 150114Z 18011G17KT 01/M01 A3011 RMK A01 T00071009  RH  089%=      5-min Rain = 0
KPD1 150115Z 18012KT 01/M01 A3011 RMK A01 T00071009  RH  089%=      5-min Rain = 0
KPD1 150116Z 17013KT 01/M01 A3011 RMK A01 T00071009  RH  089%=      5-min Rain = 0
KPD1 150117Z 17015KT 01/M01 A3011 RMK A01 T00071009  RH  089%=      5-min Rain = 0
KPD1 150118Z 17015G20KT 01/M01 A3011 RMK A01 T00071009  RH  090%=      5-min Rain = 0
KPD1 150119Z 17019G24KT 01/M01 A3011 RMK A01 T00071008  RH  090%=      5-min Rain = 0
KPD1 150120Z 17017KT 01/M01 A3011 RMK A01 T00071008  RH  090%=      5-min Rain = 0
KPD1 150121Z 18018KT 01/M01 A3011 RMK A01 T00071008  RH  090%=      5-min Rain = 0
KPD1 150122Z 17018G24KT 01/M01 A301 RMK A01 T00071008  RH  090%=      5-min Rain = 0
KPD1 150123Z 18019KT 01/M01 A3011 RMK A01 T00071008  RH  090%=      5-min Rain = 0
KPD1 150124Z 18019G24KT 01/M01 A3011 RMK A01 T00071008  RH  090%=      5-min Rain = 0
KPD1 150125Z 18015G22KT 01/M01 A301 RMK A01 T00071008  RH  090%=      5-min Rain = 0
KPD1 150126Z 18013G18KT 01/M01 A3011 RMK A01 T00071008  RH  090%=      5-min Rain = 0
KPD1 150127Z 18013G20KT 01/M01 A3011 RMK A01 T00071008  RH  089%=      5-min Rain = 0
KPD1 150128Z 18015KT 01/M01 A3011 RMK A01 T00071008  RH  089%=      5-min Rain = 0
KPD1 150129Z 18014KT 01/M01 A3011 RMK A01 T00071009  RH  089%=      5-min Rain = 0
KPD1 150130Z 17016G21KT 01/M01 A3011 RMK A01 T00071009  RH  089%=      5-min Rain = 0
KPD1 150131Z 17016G21KT 01/M01 A301 RMK A01 T00071008  RH  089%=      5-min Rain = 0
KPD1 150132Z 17015G22KT 01/M01 A301 RMK A01 T00071008  RH  089%=      5-min Rain = 0
KPD1 150133Z 17022G27KT 01/M01 A301 RMK A01 T00071008  RH  089%=      5-min Rain = 0
KPD1 150134Z 18015G23KT 01/M01 A301 RMK A01 T00081008  RH  089%=      5-min Rain = 0
KPD1 150135Z 18015KT 01/M01 A3011 RMK A01 T00081008  RH  089%=      5-min Rain = 0
KPD1 150136Z 18013KT 01/M01 A301 RMK A01 T00081008  RH  089%=      5-min Rain = 0
KPD1 150137Z 18015KT 01/M01 A301 RMK A01 T00081008  RH  089%=      5-min Rain = 0
KPD1 150138Z 19015KT 01/M01 A301 RMK A01 T00081008  RH  089%=      5-min Rain = 0
KPD1 150139Z 18015G21KT 01/M01 A301 RMK A01 T00081008  RH  089%=      5-min Rain = 0
KPD1 150140Z 19017KT 01/M01 A301 RMK A01 T00081008  RH  089%=      5-min Rain = 0
KPD1 150141Z 18015KT 01/M01 A301 RMK A01 T00081008  RH  089%=      5-min Rain = 0
KPD1 150142Z 18014G20KT 01/M01 A301 RMK A01 T00081008  RH  089%=      5-min Rain = 0
KPD1 150143Z 18015G20KT 01/M01 A301 RMK A01 T00081008  RH  089%=      5-min Rain = 0
KPD1 150144Z 18015KT 01/M01 A301 RMK A01 T00081008  RH  089%=      5-min Rain = 0
KPD1 150145Z 17012KT 01/M01 A301 RMK A01 T00081008  RH  089%=      5-min Rain = 0
KPD1 150146Z 17018G23KT 01/M01 A301 RMK A01 T00081008  RH  089%=      5-min Rain = 0
KPD1 150147Z 17017KT 01/M01 A301 RMK A01 T00081008  RH  089%=      5-min Rain = 0
KPD1 150148Z 19016G21KT 01/M01 A301 RMK A01 T00081007  RH  089%=      5-min Rain = 0
KPD1 150149Z 18014KT 01/M01 A301 RMK A01 T00081007  RH  089%=      5-min Rain = 0
KPD1 150150Z 18019KT 01/M01 A301 RMK A01 T00081007  RH  089%=      5-min Rain = 0
KPD1 150151Z 18015G21KT 01/M01 A301 RMK A01 T00081008  RH  089%=      5-min Rain = 0
KPD1 150152Z 17016KT 01/M01 A301 RMK A01 T00081008  RH  089%=      5-min Rain = 0
KPD1 150153Z 18015G20KT 01/M01 A301 RMK A01 T00081007  RH  089%=      5-min Rain = 0
KPD1 150154Z 18015KT 01/M01 A301 RMK A01 T00081007  RH  089%=      5-min Rain = 0
KPD1 150155Z 18016KT 01/M01 A301 RMK A01 T00081008  RH  089%=      5-min Rain = 0
KPD1 150156Z 18015KT 01/M01 A301 RMK A01 T00081007  RH  089%=      5-min Rain = 0
KPD1 150157Z 18017KT 01/M01 A301 RMK A01 T00081007  RH  089%=      5-min Rain = 0
KPD1 150158Z 18014G19KT 01/M01 A301 RMK A01 T00081007  RH  089%=      5-min Rain = 0
KPD1 150159Z 18019G24KT 01/M01 A301 RMK A01 T00081007  RH  089%=      5-min Rain = 0
KPD1 150200Z 18018KT 01/M01 A301 RMK A01 T00081008  RH  089%=      5-min Rain = 0
KPD1 150201Z 17016G22KT 01/M01 A301 RMK A01 T00081008  RH  089%=      5-min Rain = 0
KPD1 150202Z 18015G20KT 01/M01 A301 RMK A01 T00091007  RH  089%=      5-min Rain = 0
KPD1 150203Z 18015G21KT 01/M01 A301 RMK A01 T00081007  RH  089%=      5-min Rain = 0
KPD1 150204Z 17019KT 01/M01 A301 RMK A01 T00081007  RH  089%=      5-min Rain = 0
KPD1 150205Z 17019G26KT 01/M01 A301 RMK A01 T00081007  RH  089%=      5-min Rain = 0
KPD1 150206Z 18019G26KT 01/M01 A301 RMK A01 T00081007  RH  090%=      5-min Rain = 0
KPD1 150207Z 18019KT 01/M01 A301 RMK A01 T00081007  RH  090%=      5-min Rain = 0
KPD1 150208Z 19015G21KT 01/M01 A301 RMK A01 T00081007  RH  090%=      5-min Rain = 0
KPD1 150209Z 18018G25KT 01/M01 A301 RMK A01 T00081008  RH  090%=      5-min Rain = 0
KPD1 150210Z 19018KT 01/M01 A301 RMK A01 T00081007  RH  090%=      5-min Rain = 0
KPD1 150211Z 18016KT 01/M01 A301 RMK A01 T00081007  RH  090%=      5-min Rain = 0
KPD1 150212Z 17017G23KT 01/M01 A301 RMK A01 T00081007  RH  090%=      5-min Rain = 0
KPD1 150213Z 19021G26KT 01/M01 A301 RMK A01 T00081008  RH  090%=      5-min Rain = 0
KPD1 150214Z 18015G20KT 01/M01 A301 RMK A01 T00081007  RH  090%=      5-min Rain = 0
KPD1 150215Z 19016G21KT 01/M01 A3011 RMK A01 T00081008  RH  089%=      5-min Rain = 0
KPD1 150216Z 18015KT 01/M01 A3011 RMK A01 T00081007  RH  089%=      5-min Rain = 0
KPD1 150217Z 18016KT 01/M01 A3011 RMK A01 T00081007  RH  089%=      5-min Rain = 0
KPD1 150218Z 18014G20KT 01/M01 A3011 RMK A01 T00081007  RH  089%=      5-min Rain = 0
KPD1 150219Z 18017G22KT 01/M01 A3011 RMK A01 T00081007  RH  089%=      5-min Rain = 0
KPD1 150220Z 19015KT 01/M01 A3011 RMK A01 T00081007  RH  089%=      5-min Rain = 0
KPD1 150221Z 17013G18KT 01/M01 A3011 RMK A01 T00081007  RH  089%=      5-min Rain = 0
KPD1 150222Z 18017G22KT 01/M01 A3011 RMK A01 T00081007  RH  089%=      5-min Rain = 0
KPD1 150223Z 18017KT 01/M01 A3011 RMK A01 T00091007  RH  089%=      5-min Rain = 0
KPD1 150224Z 18015G21KT 01/M01 A3011 RMK A01 T00091007  RH  089%=      5-min Rain = 0
KPD1 150225Z 17018KT 01/M01 A3011 RMK A01 T00091007  RH  089%=      5-min Rain = 0
KPD1 150226Z 17016G21KT 01/M01 A3011 RMK A01 T00091007  RH  089%=      5-min Rain = 0
KPD1 150227Z 18017KT 01/M01 A3011 RMK A01 T00091007  RH  089%=      5-min Rain = 0
KPD1 150228Z 18014G19KT 01/M01 A3011 RMK A01 T00091007  RH  089%=      5-min Rain = 0
KPD1 150229Z 18017G26KT 01/M01 A3011 RMK A01 T00091007  RH  089%=      5-min Rain = 0
KPD1 150230Z 18018KT 01/M01 A3011 RMK A01 T00091007  RH  089%=      5-min Rain = 0
KPD1 150231Z 18015G21KT 01/M01 A3011 RMK A01 T00091007  RH  089%=      5-min Rain = 0
KPD1 150232Z 18014KT 01/M01 A3011 RMK A01 T00091007  RH  089%=      5-min Rain = 0
KPD1 150233Z 18014KT 01/M01 A3011 RMK A01 T00091007  RH  089%=      5-min Rain = 0
KPD1 150234Z 19012KT 01/M01 A3011 RMK A01 T00091007  RH  089%=      5-min Rain = 0
KPD1 150235Z 18010KT 01/M01 A3011 RMK A01 T00091007  RH  089%=      5-min Rain = 0
KPD1 150236Z 18012KT 01/M01 A3011 RMK A01 T00091007  RH  089%=      5-min Rain = 0
KPD1 150237Z 17013KT 01/M01 A3011 RMK A01 T00091007  RH  089%=      5-min Rain = 0
KPD1 150238Z 17016G23KT 01/M01 A3011 RMK A01 T00091007  RH  089%=      5-min Rain = 0
KPD1 150239Z 18015KT 01/M01 A3011 RMK A01 T00091007  RH  089%=      5-min Rain = 0
KPD1 150240Z 17014G19KT 01/M01 A3011 RMK A01 T00091007  RH  089%=      5-min Rain = 0
KPD1 150241Z 17014KT 01/M01 A3011 RMK A01 T00091007  RH  089%=      5-min Rain = 0
KPD1 150242Z 18015KT 01/M01 A3011 RMK A01 T00091006  RH  089%=      5-min Rain = 0
KPD1 150243Z 19013G18KT 01/M01 A3011 RMK A01 T00091007  RH  089%=      5-min Rain = 0
KPD1 150244Z 18016KT 01/M01 A3011 RMK A01 T00091007  RH  089%=      5-min Rain = 0
KPD1 150245Z 17017G24KT 01/M01 A3011 RMK A01 T00091007  RH  089%=      5-min Rain = 0
KPD1 150246Z 17017KT 01/M01 A3011 RMK A01 T00091007  RH  089%=      5-min Rain = 0
KPD1 150247Z 18013KT 01/M01 A3011 RMK A01 T00091006  RH  089%=      5-min Rain = 0
KPD1 150248Z 18011G16KT 01/M01 A3011 RMK A01 T00091006  RH  089%=      5-min Rain = 0
KPD1 150249Z 17014KT 01/M01 A3011 RMK A01 T00091006  RH  089%=      5-min Rain = 0
KPD1 150250Z 17012G18KT 01/M01 A3011 RMK A01 T00091006  RH  089%=      5-min Rain = 0
KPD1 150251Z 17013KT 01/M01 A3011 RMK A01 T00091006  RH  089%=      5-min Rain = 0
KPD1 150252Z 17014G20KT 01/M01 A3011 RMK A01 T00091006  RH  089%=      5-min Rain = 0
KPD1 150253Z 17012KT 01/M01 A3011 RMK A01 T00091007  RH  089%=      5-min Rain = 0
KPD1 150254Z 17011KT 01/M01 A3011 RMK A01 T00091007  RH  089%=      5-min Rain = 0
KPD1 150255Z 17012KT 01/M01 A3011 RMK A01 T00091007  RH  089%=      5-min Rain = 0
KPD1 150256Z 18010KT 01/M01 A3011 RMK A01 T00081007  RH  089%=      5-min Rain = 0
KPD1 150257Z 17012KT 01/M01 A3011 RMK A01 T00081007  RH  090%=      5-min Rain = 0
KPD1 150258Z 18010KT 01/M01 A3011 RMK A01 T00081007  RH  090%=      5-min Rain = 0
KPD1 150259Z 17014KT 01/M01 A3011 RMK A01 T00081007  RH  090%=      5-min Rain = 0
KPD1 150300Z 18012KT 01/M01 A3011 RMK A01 T00081007  RH  090%=      5-min Rain = 0
KPD1 150301Z 18015KT 01/M01 A3011 RMK A01 T00081007  RH  090%=      5-min Rain = 0
KPD1 150302Z 18012KT 01/M01 A3011 RMK A01 T00081007  RH  090%=      5-min Rain = 0
KPD1 150303Z 18014G19KT 01/M01 A3011 RMK A01 T00071007  RH  090%=      5-min Rain = 0
KPD1 150304Z 18011KT 01/M01 A3011 RMK A01 T00081007  RH  090%=      5-min Rain = 0
KPD1 150305Z 18010KT 01/M01 A3011 RMK A01 T00071007  RH  090%=      5-min Rain = 0
KPD1 150306Z 19011KT 01/M01 A3011 RMK A01 T00071008  RH  090%=      5-min Rain = 0
KPD1 150307Z 20009G15KT 01/M01 A3011 RMK A01 T00071007  RH  090%=      5-min Rain = 0
KPD1 150308Z 19010KT 01/M01 A3011 RMK A01 T00071007  RH  090%=      5-min Rain = 0
KPD1 150309Z 20011G18KT 01/M01 A3011 RMK A01 T00071008  RH  090%=      5-min Rain = 0
KPD1 150310Z 18009KT 01/M01 A3011 RMK A01 T00071007  RH  090%=      5-min Rain = 0
KPD1 150311Z 18010KT 01/M01 A3011 RMK A01 T00071007  RH  090%=      5-min Rain = 0
KPD1 150312Z 18012G17KT 01/M01 A3011 RMK A01 T00071008  RH  090%=      5-min Rain = 0
KPD1 150313Z 18011G16KT 01/M01 A3011 RMK A01 T00061008  RH  090%=      5-min Rain = 0
KPD1 150314Z 18013KT 01/M01 A3011 RMK A01 T00071008  RH  090%=      5-min Rain = 0
KPD1 150315Z 18012KT 01/M01 A3011 RMK A01 T00061007  RH  090%=      5-min Rain = 0
KPD1 150316Z 18009KT 01/M01 A3011 RMK A01 T00071007  RH  090%=      5-min Rain = 0
KPD1 150317Z 17009KT 01/M01 A3011 RMK A01 T00061008  RH  090%=      5-min Rain = 0
KPD1 150318Z 19010KT 01/M01 A3011 RMK A01 T00061008  RH  090%=      5-min Rain = 0
KPD1 150319Z 18010KT 01/M01 A3011 RMK A01 T00061008  RH  090%=      5-min Rain = 0
KPD1 150320Z 18012G17KT 01/M01 A3011 RMK A01 T00061008  RH  091%=      5-min Rain = 0
KPD1 150321Z 19012KT 01/M01 A3011 RMK A01 T00051008  RH  091%=      5-min Rain = 0
KPD1 150322Z 18010KT 01/M01 A3011 RMK A01 T00061008  RH  091%=      5-min Rain = 0
KPD1 150323Z 18011KT 01/M01 A3011 RMK A01 T00051008  RH  091%=      5-min Rain = 0
KPD1 150324Z 18010KT 01/M01 A3011 RMK A01 T00051008  RH  091%=      5-min Rain = 0
KPD1 150325Z 17008KT 01/M01 A3011 RMK A01 T00051008  RH  091%=      5-min Rain = 0
KPD1 150326Z 16013KT 01/M01 A3011 RMK A01 T00061008  RH  091%=      5-min Rain = 0
KPD1 150327Z 18010KT 01/M01 A3011 RMK A01 T00061008  RH  091%=      5-min Rain = 0
KPD1 150328Z 17009KT 01/M01 A3011 RMK A01 T00061008  RH  091%=      5-min Rain = 0
KPD1 150329Z 17011KT 01/M01 A3011 RMK A01 T00061008  RH  090%=      5-min Rain = 0
KPD1 150330Z 18013KT 01/M01 A3011 RMK A01 T00061008  RH  090%=      5-min Rain = 0
KPD1 150331Z 18013KT 01/M01 A3011 RMK A01 T00061008  RH  091%=      5-min Rain = 0
KPD1 150332Z 18011KT 01/M01 A3011 RMK A01 T00051008  RH  091%=      5-min Rain = 0
KPD1 150333Z 18009KT 01/M01 A3011 RMK A01 T00051008  RH  091%=      5-min Rain = 0
KPD1 150334Z 17010KT 01/M01 A3011 RMK A01 T00051008  RH  091%=      5-min Rain = 0
KPD1 150335Z 18011KT 01/M01 A3011 RMK A01 T00051008  RH  091%=      5-min Rain = 0
KPD1 150336Z 17009KT 01/M01 A3011 RMK A01 T00061008  RH  091%=      5-min Rain = 0
KPD1 150337Z 17011KT 01/M01 A3011 RMK A01 T00051008  RH  091%=      5-min Rain = 0
KPD1 150338Z 17009KT 01/M01 A3011 RMK A01 T00061008  RH  091%=      5-min Rain = 0
KPD1 150339Z 18008KT 01/M01 A3011 RMK A01 T00051008  RH  091%=      5-min Rain = 0
KPD1 150340Z 17010KT 01/M01 A3011 RMK A01 T00061008  RH  091%=      5-min Rain = 0
KPD1 150341Z 19009KT 01/M01 A3011 RMK A01 T00061008  RH  091%=      5-min Rain = 0
KPD1 150342Z 17011KT 01/M01 A3011 RMK A01 T00051008  RH  091%=      5-min Rain = 0
KPD1 150343Z 17008KT 01/M01 A3011 RMK A01 T00051008  RH  091%=      5-min Rain = 0
KPD1 150344Z 16009KT 01/M01 A3011 RMK A01 T00061008  RH  091%=      5-min Rain = 0
KPD1 150345Z 18012KT 01/M01 A3011 RMK A01 T00051008  RH  091%=      5-min Rain = 0
KPD1 150346Z 18011KT 01/M01 A3011 RMK A01 T00051008  RH  091%=      5-min Rain = 0
KPD1 150347Z 18008KT 01/M01 A3011 RMK A01 T00051008  RH  091%=      5-min Rain = 0
KPD1 150348Z 18008KT 01/M01 A3011 RMK A01 T00051008  RH  091%=      5-min Rain = 0
KPD1 150349Z 18009KT 01/M01 A3011 RMK A01 T00051008  RH  091%=      5-min Rain = 0
KPD1 150350Z 18008KT 01/M01 A3011 RMK A01 T00051008  RH  091%=      5-min Rain = 0
KPD1 150351Z 17010KT 01/M01 A3011 RMK A01 T00051008  RH  091%=      5-min Rain = 0
KPD1 150352Z 16010KT 01/M01 A3011 RMK A01 T00051008  RH  091%=      5-min Rain = 0
KPD1 150353Z 18011KT 01/M01 A3011 RMK A01 T00051008  RH  092%=      5-min Rain = 0
KPD1 150354Z 18011KT 01/M01 A3011 RMK A01 T00051007  RH  092%=      5-min Rain = 0
KPD1 150355Z 18010KT 01/M01 A3011 RMK A01 T00051008  RH  092%=      5-min Rain = 0
KPD1 150356Z 19012G21KT 01/M01 A3011 RMK A01 T00051008  RH  092%=      5-min Rain = 0
KPD1 150357Z 18012KT 01/M01 A3011 RMK A01 T00051007  RH  092%=      5-min Rain = 0
KPD1 150358Z 18013KT 01/M01 A3011 RMK A01 T00061006  RH  092%=      5-min Rain = 0
KPD1 150359Z 18012KT 01/M01 A3011 RMK A01 T00061006  RH  092%=      5-min Rain = 0
KPD1 150400Z 18012KT 01/M01 A3011 RMK A01 T00061006  RH  092%=      5-min Rain = 0
KPD1 150401Z 20013KT 01/M01 A3011 RMK A01 T00061006  RH  091%=      5-min Rain = 0
KPD1 150402Z 18010KT 01/M01 A3011 RMK A01 T00061006  RH  091%=      5-min Rain = 0
KPD1 150403Z 18011KT 01/M01 A3011 RMK A01 T00061007  RH  091%=      5-min Rain = 0
KPD1 150404Z 18011G17KT 01/M01 A3011 RMK A01 T00061007  RH  091%=      5-min Rain = 0
KPD1 150405Z 19012KT 01/M01 A3011 RMK A01 T00061007  RH  091%=      5-min Rain = 0
KPD1 150406Z 20010KT 01/M01 A3011 RMK A01 T00061006  RH  091%=      5-min Rain = 0
KPD1 150407Z 18007KT 01/M01 A3011 RMK A01 T00061006  RH  092%=      5-min Rain = 0
KPD1 150408Z 18007KT 01/M01 A3011 RMK A01 T00061007  RH  091%=      5-min Rain = 0
KPD1 150409Z 18008KT 01/M01 A3011 RMK A01 T00051008  RH  091%=      5-min Rain = 0
KPD1 150410Z 19007KT 01/M01 A3011 RMK A01 T00051008  RH  091%=      5-min Rain = 0
KPD1 150411Z 18008KT 01/M01 A3011 RMK A01 T00051008  RH  091%=      5-min Rain = 0
KPD1 150412Z 19009KT 00/M01 A3011 RMK A01 T00041008  RH  092%=      5-min Rain = 0
KPD1 150413Z 18008KT 01/M01 A3011 RMK A01 T00051007  RH  092%=      5-min Rain = 0
KPD1 150414Z 18010KT 01/M01 A3011 RMK A01 T00051006  RH  092%=      5-min Rain = 0
KPD1 150415Z 18008KT 01/M01 A3011 RMK A01 T00061006  RH  092%=      5-min Rain = 0
KPD1 150416Z 18007KT 01/M01 A3011 RMK A01 T00051006  RH  092%=      5-min Rain = 0
KPD1 150417Z 19007KT 01/M01 A3011 RMK A01 T00061006  RH  092%=      5-min Rain = 0
KPD1 150418Z 19009KT 01/M01 A3011 RMK A01 T00061006  RH  092%=      5-min Rain = 0
KPD1 150419Z 19008KT 01/M01 A3011 RMK A01 T00051007  RH  092%=      5-min Rain = 0
KPD1 150420Z 19008KT 01/M01 A3011 RMK A01 T00061006  RH  092%=      5-min Rain = 0
KPD1 150421Z 19007KT 01/M01 A3011 RMK A01 T00061006  RH  092%=      5-min Rain = 0
KPD1 150422Z 20007KT 01/M01 A3011 RMK A01 T00061006  RH  092%=      5-min Rain = 0
KPD1 150423Z 19007KT 01/M01 A3011 RMK A01 T00061006  RH  092%=      5-min Rain = 0
KPD1 150424Z 19005KT 01/M01 A3011 RMK A01 T00061006  RH  092%=      5-min Rain = 0
KPD1 150425Z 20008KT 01/M01 A3011 RMK A01 T00051007  RH  092%=      5-min Rain = 0
KPD1 150426Z 20006KT 01/M01 A3011 RMK A01 T00061006  RH  092%=      5-min Rain = 0
KPD1 150427Z 20005KT 01/M01 A3011 RMK A01 T00061006  RH  092%=      5-min Rain = 0
KPD1 150428Z 20006KT 01/M01 A3011 RMK A01 T00061006  RH  092%=      5-min Rain = 0
KPD1 150429Z 20006KT 01/M01 A3011 RMK A01 T00051007  RH  091%=      5-min Rain = 0
KPD1 150430Z 20010KT 01/M01 A3011 RMK A01 T00051007  RH  092%=      5-min Rain = 0
KPD1 150431Z 21006KT 01/M01 A3011 RMK A01 T00061005  RH  092%=      5-min Rain = 0
KPD1 150432Z 21011KT 01/M01 A3011 RMK A01 T00061005  RH  092%=      5-min Rain = 0
KPD1 150433Z 21008KT 01/M00 A3011 RMK A01 T00071004  RH  092%=      5-min Rain = 0
KPD1 150434Z 21006KT 01/M00 A3011 RMK A01 T00081004  RH  092%=      5-min Rain = 0
KPD1 150435Z 21007KT 01/M00 A3011 RMK A01 T00081004  RH  091%=      5-min Rain = 0
KPD1 150436Z 22007KT 01/M01 A3011 RMK A01 T00081005  RH  091%=      5-min Rain = 0
KPD1 150437Z 20006KT 01/M01 A3011 RMK A01 T00071007  RH  091%=      5-min Rain = 0
KPD1 150438Z 22007KT 01/M01 A3011 RMK A01 T00071007  RH  091%=      5-min Rain = 0
KPD1 150439Z 21005KT 01/M01 A3011 RMK A01 T00071006  RH  091%=      5-min Rain = 0
KPD1 150440Z 21006KT 01/M01 A3011 RMK A01 T00061007  RH  091%=      5-min Rain = 0
KPD1 150441Z 21007KT 01/M01 A3011 RMK A01 T00061007  RH  091%=      5-min Rain = 0
KPD1 150442Z 21006KT 01/M01 A3011 RMK A01 T00061007  RH  091%=      5-min Rain = 0
KPD1 150443Z 22007KT 01/M01 A301 RMK A01 T00061007  RH  091%=      5-min Rain = 0
KPD1 150444Z 22006KT 01/M01 A3011 RMK A01 T00061007  RH  092%=      5-min Rain = 0
KPD1 150445Z 23005KT 01/M01 A301 RMK A01 T00061007  RH  092%=      5-min Rain = 0
KPD1 150446Z 22006KT 01/M01 A3011 RMK A01 T00051007  RH  092%=      5-min Rain = 0
KPD1 150447Z 23006KT 01/M01 A301 RMK A01 T00051008  RH  091%=      5-min Rain = 0
KPD1 150448Z 23007KT 01/M01 A3011 RMK A01 T00051007  RH  092%=      5-min Rain = 0
KPD1 150449Z 22008KT 01/M01 A3011 RMK A01 T00061005  RH  092%=      5-min Rain = 0
KPD1 150450Z 23006KT 01/M01 A3011 RMK A01 T00061005  RH  092%=      5-min Rain = 0
KPD1 150451Z 23007KT 01/M01 A3011 RMK A01 T00061005  RH  092%=      5-min Rain = 0
KPD1 150452Z 22008KT 01/M01 A3011 RMK A01 T00071005  RH  092%=      5-min Rain = 0
KPD1 150453Z 23007KT 01/M00 A3011 RMK A01 T00081004  RH  092%=      5-min Rain = 0
KPD1 150454Z 24008KT 01/M00 A3011 RMK A01 T00081004  RH  092%=      5-min Rain = 0
KPD1 150455Z 24008KT 01/M00 A3011 RMK A01 T00081004  RH  091%=      5-min Rain = 0
KPD1 150456Z 23008KT 01/M00 A3011 RMK A01 T00091004  RH  091%=      5-min Rain = 0
KPD1 150457Z 23007KT 01/M00 A3011 RMK A01 T00091003  RH  091%=      5-min Rain = 0
KPD1 150458Z 22007KT 01/M00 A3011 RMK A01 T00101004  RH  091%=      5-min Rain = 0
KPD1 150459Z 23008KT 01/M01 A301 RMK A01 T00091005  RH  091%=      5-min Rain = 0
KPD1 150500Z 22008KT 01/M01 A301 RMK A01 T00091005  RH  091%=      5-min Rain = 0
KPD1 150501Z 22007KT 01/M01 A301 RMK A01 T00091005  RH  091%=      5-min Rain = 0
KPD1 150502Z 21008KT 01/M01 A301 RMK A01 T00081006  RH  091%=      5-min Rain = 0
KPD1 150503Z 21007KT 01/M01 A301 RMK A01 T00081005  RH  091%=      5-min Rain = 0
KPD1 150504Z 22008KT 01/M01 A301 RMK A01 T00081005  RH  091%=      5-min Rain = 0
KPD1 150505Z 21007KT 01/M01 A301 RMK A01 T00081005  RH  091%=      5-min Rain = 0
KPD1 150506Z 21008KT 01/M01 A301 RMK A01 T00081005  RH  091%=      5-min Rain = 0
KPD1 150507Z 22008KT 01/M00 A301 RMK A01 T00091004  RH  091%=      5-min Rain = 0
KPD1 150508Z 22009KT 01/M00 A301 RMK A01 T00091004  RH  091%=      5-min Rain = 0
KPD1 150509Z 22007KT 01/M00 A301 RMK A01 T00101003  RH  091%=      5-min Rain = 0
KPD1 150510Z 22007KT 01/M00 A301 RMK A01 T00101003  RH  091%=      5-min Rain = 0
KPD1 150511Z 22007KT 01/M00 A301 RMK A01 T00091004  RH  091%=      5-min Rain = 0
KPD1 150512Z 22009KT 01/M01 A301 RMK A01 T00091005  RH  091%=      5-min Rain = 0
KPD1 150513Z 22008KT 01/M01 A301 RMK A01 T00091005  RH  091%=      5-min Rain = 0
KPD1 150514Z 22008KT 01/M00 A301 RMK A01 T00091004  RH  091%=      5-min Rain = 0
KPD1 150515Z 22008KT 01/M00 A301 RMK A01 T00091004  RH  091%=      5-min Rain = 0
KPD1 150516Z 22008KT 01/M00 A301 RMK A01 T00101004  RH  091%=      5-min Rain = 0
KPD1 150517Z 22009KT 01/M00 A301 RMK A01 T00101004  RH  091%=      5-min Rain = 0
KPD1 150518Z 22009KT 01/M00 A301 RMK A01 T00101004  RH  091%=      5-min Rain = 0
KPD1 150519Z 21009KT 01/M00 A301 RMK A01 T00101003  RH  091%=      5-min Rain = 0
KPD1 150520Z 22008KT 01/M00 A301 RMK A01 T00101003  RH  091%=      5-min Rain = 0
KPD1 150521Z 22008KT 01/M00 A301 RMK A01 T00111003  RH  091%=      5-min Rain = 0
KPD1 150522Z 22010KT 01/M00 A301 RMK A01 T00111003  RH  091%=      5-min Rain = 0
KPD1 150523Z 21009KT 01/M00 A3009 RMK A01 T00111003  RH  091%=      5-min Rain = 0
KPD1 150524Z 21011KT 01/M00 A3009 RMK A01 T00111003  RH  091%=      5-min Rain = 0
KPD1 150525Z 21011KT 01/M00 A3009 RMK A01 T00111002  RH  091%=      5-min Rain = 0
KPD1 150526Z 22011KT 01/M00 A3009 RMK A01 T00121001  RH  091%=      5-min Rain = 0
KPD1 150527Z 22010KT 01/M00 A3009 RMK A01 T00121001  RH  091%=      5-min Rain = 0
KPD1 150528Z 21010KT 01/M00 A3009 RMK A01 T00121002  RH  090%=      5-min Rain = 0
KPD1 150529Z 21011G16KT 01/M00 A3009 RMK A01 T00131001  RH  090%=      5-min Rain = 0
KPD1 150530Z 22007KT 01/M00 A3009 RMK A01 T00131001  RH  090%=      5-min Rain = 0
KPD1 150531Z 21010KT 01/M00 A3009 RMK A01 T00131001  RH  090%=      5-min Rain = 0
KPD1 150532Z 21010KT 01/M00 A3009 RMK A01 T00131001  RH  090%=      5-min Rain = 0
KPD1 150533Z 21009KT 01/M00 A3009 RMK A01 T00131001  RH  090%=      5-min Rain = 0
KPD1 150534Z 21009KT 01/M00 A3009 RMK A01 T00131002  RH  090%=      5-min Rain = 0
KPD1 150535Z 21007KT 01/M00 A3009 RMK A01 T00131002  RH  090%=      5-min Rain = 0
KPD1 150536Z 21007KT 01/M00 A3009 RMK A01 T00131002  RH  090%=      5-min Rain = 0
KPD1 150537Z 22008KT 01/M00 A3009 RMK A01 T00131002  RH  090%=      5-min Rain = 0
KPD1 150538Z 22008KT 01/M00 A3009 RMK A01 T00131002  RH  090%=      5-min Rain = 0
KPD1 150539Z 22009KT 01/M00 A3009 RMK A01 T00131002  RH  090%=      5-min Rain = 0
KPD1 150540Z 22009KT 01/M00 A3009 RMK A01 T00131002  RH  090%=      5-min Rain = 0
KPD1 150541Z 21006KT 01/M00 A3009 RMK A01 T00131002  RH  090%=      5-min Rain = 0
KPD1 150542Z 21006KT 01/M00 A3009 RMK A01 T00121002  RH  090%=      5-min Rain = 0
KPD1 150543Z 21007KT 01/M00 A3009 RMK A01 T00121003  RH  090%=      5-min Rain = 0
KPD1 150544Z 21008KT 01/M00 A3009 RMK A01 T00111004  RH  090%=      5-min Rain = 0
KPD1 150545Z 20007KT 01/M00 A3009 RMK A01 T00111004  RH  090%=      5-min Rain = 0
KPD1 150546Z 21006KT 01/M00 A3009 RMK A01 T00101004  RH  090%=      5-min Rain = 0
KPD1 150547Z 21008KT 01/M00 A3009 RMK A01 T00101004  RH  090%=      5-min Rain = 0
KPD1 150548Z 21007KT 01/M00 A3009 RMK A01 T00101004  RH  090%=      5-min Rain = 0
KPD1 150549Z 21008KT 01/M00 A3009 RMK A01 T00101004  RH  091%=      5-min Rain = 0
KPD1 150550Z 21007KT 01/M00 A3009 RMK A01 T00101004  RH  091%=      5-min Rain = 0
KPD1 150551Z 20007KT 01/M00 A3009 RMK A01 T00101004  RH  091%=      5-min Rain = 0
KPD1 150552Z 20007KT 01/M00 A3008 RMK A01 T00091004  RH  091%=      5-min Rain = 0
KPD1 150553Z 20006KT 01/M00 A3008 RMK A01 T00091004  RH  091%=      5-min Rain = 0
KPD1 150554Z 19007KT 01/M00 A3008 RMK A01 T00091004  RH  091%=      5-min Rain = 0
KPD1 150555Z 19007KT 01/M00 A3008 RMK A01 T00091004  RH  091%=      5-min Rain = 0
KPD1 150556Z 20008KT 01/M00 A3008 RMK A01 T00091003  RH  091%=      5-min Rain = 0
KPD1 150557Z 20008KT 01/M00 A3008 RMK A01 T00091003  RH  091%=      5-min Rain = 0
KPD1 150558Z 19007KT 01/M00 A3008 RMK A01 T00091003  RH  091%=      5-min Rain = 0
KPD1 150559Z 19006KT 01/M00 A3008 RMK A01 T00101003  RH  091%=      5-min Rain = 0

Page generated in 0.14 seconds.